GEFSCGP_500_meanwind_138.txt.gz
Wind_Speed
12 14 14 15 16 17 18 18 19 20 20 20 20 20 19 19 19 19 18 17 16 16 16 17 17 17 18 18 18 17 18 17 18 19 20 20 21 20 21 21 21 21 22 23
13 14 16 16 17 16 16 16 17 18 18 18 18 18 18 18 18 17 16 16 17 16 17 18 17 18 19 18 18 18 18 19 20 20 21 21 21 21 22 22 23 24 24 24
13 14 15 15 16 16 15 15 15 15 16 17 17 17 16 16 16 16 15 15 16 17 16 17 17 18 19 19 19 19 19 20 20 20 20 22 23 23 24 24 24 25 26 26
12 13 13 13 14 15 15 14 14 14 15 15 16 16 15 15 16 16 16 16 17 17 18 18 18 18 19 19 19 20 19 19 20 21 22 23 24 25 26 26 26 27 27 27
11 11 12 13 14 14 15 14 14 14 14 14 15 15 15 15 15 15 16 17 17 17 19 19 19 19 20 21 21 20 20 20 21 23 24 25 25 26 26 27 27 27 27 27
11 11 12 13 14 14 14 15 15 14 14 15 14 15 15 15 15 16 17 18 18 18 19 20 20 21 21 22 23 23 22 22 23 24 25 26 27 27 28 28 28 28 28 27
9 10 11 12 13 14 15 16 16 15 15 15 15 15 15 15 15 16 17 17 17 19 20 20 20 21 22 22 22 23 23 23 24 25 26 27 28 29 30 29 30 29 29 29
8 9 9 10 11 12 14 15 15 16 16 15 15 15 15 15 14 15 16 17 16 18 20 21 21 22 23 23 23 23 23 24 25 25 26 28 29 30 31 31 30 30 30 30
9 10 10 10 10 11 11 12 13 14 15 15 15 15 14 14 14 15 16 16 17 17 19 20 22 23 23 23 23 23 24 24 25 26 27 28 28 28 28 29 30 30 29 29
8 10 10 10 11 11 11 12 12 13 13 14 14 14 13 13 14 15 15 16 17 18 18 20 22 22 22 22 23 23 23 24 25 26 26 26 26 26 26 25 26 26 27 28
9 9 10 11 11 11 11 12 13 14 14 14 13 13 13 14 14 15 16 16 17 17 18 19 20 21 22 22 21 21 22 23 23 23 24 24 24 24 23 23 23 23 23 24
9 9 10 11 11 11 12 12 12 13 14 13 14 13 13 14 14 15 15 16 17 18 19 19 20 21 21 20 20 21 21 22 22 22 22 22 22 22 21 21 21 21 21 22
9 9 10 11 11 12 12 12 12 12 12 12 13 13 13 14 14 15 16 16 17 18 19 19 20 20 19 19 20 20 21 22 22 22 22 21 21 21 20 20 20 20 21 21
8 8 9 10 10 10 10 11 11 11 12 12 12 13 14 14 14 15 15 16 17 17 18 18 17 18 18 18 19 19 20 21 21 22 21 21 20 20 19 18 18 18 19 19
8 8 8 9 9 10 10 10 11 11 11 12 12 13 14 14 14 14 15 16 16 16 16 17 18 17 17 17 18 19 19 20 20 20 20 19 18 17 17 17 17 17 17 17
7 7 8 8 9 10 11 11 11 11 11 11 12 13 14 15 15 14 15 15 15 15 16 17 17 17 17 16 17 17 18 18 18 18 17 17 16 15 15 15 15 15 15 16
6 7 8 9 9 9 10 10 11 11 12 12 12 13 14 14 14 13 14 15 15 16 16 17 17 16 16 16 16 17 16 17 17 16 15 14 14 13 13 13 14 14 14 14
5 6 6 7 8 8 9 9 10 11 12 12 13 13 14 14 14 14 14 15 15 16 16 16 16 16 15 15 15 15 15 16 16 15 15 14 13 13 13 13 13 13 12 12
5 6 6 7 8 8 8 9 10 11 11 11 12 13 14 14 15 15 15 16 16 16 15 15 15 14 14 13 13 14 14 15 14 13 13 12 12 12 12 11 11 11 11 11
5 6 7 7 8 8 8 8 9 10 10 11 12 13 14 14 15 15 15 15 15 15 14 13 13 12 12 12 13 13 13 12 11 10 11 11 11 10 10 9 9 9 9 9
4 5 6 6 7 7 8 8 9 10 10 11 12 13 13 14 14 14 14 14 15 15 13 13 12 12 11 11 11 11 11 9 9 10 10 9 9 9 8 8 7 7 7 7
4 5 5 6 7 8 9 9 9 10 10 11 12 13 13 13 13 13 13 14 14 14 12 11 11 10 9 9 8 8 8 8 9 9 8 8 8 7 7 7 7 7 7 7
5 5 6 7 8 8 9 9 9 10 11 11 12 13 13 13 13 13 13 13 13 12 10 9 8 8 7 6 6 6 7 7 7 7 7 7 7 7 7 7 7 7 7 8
6 6 6 6 7 8 8 9 9 10 11 11 12 12 13 13 13 12 12 11 11 9 8 7 7 6 5 6 6 6 7 7 6 6 6 6 6 6 7 7 7 8 8 8
6 6 6 6 7 7 8 8 9 10 11 11 11 12 12 12 12 12 11 10 9 9 8 7 7 6 6 6 6 6 6 6 6 6 6 7 7 7 8 8 8 8 9 10
6 6 6 6 6 6 7 8 9 10 10 10 10 11 12 11 11 10 9 9 9 8 8 7 7 6 5 5 6 6 6 6 7 6 7 7 8 8 9 9 10 10 10 11

GEFSCGP_500_meanwind_144.txt.gz
Wind_Speed
11 11 12 13 14 15 15 15 16 17 16 17 18 19 19 19 19 19 19 19 18 18 18 18 18 18 17 16 16 16 17 18 19 19 20 21 22 23 24 24 25 26 26 26
10 11 12 12 12 13 13 14 15 16 16 16 17 18 18 18 18 19 19 19 18 19 19 19 19 19 18 17 17 18 18 18 19 20 21 22 22 23 24 25 25 26 26 27
11 11 10 10 11 12 12 12 13 14 14 15 16 17 17 17 17 18 19 19 18 19 19 20 19 19 19 19 19 19 19 19 19 20 22 23 24 24 25 26 26 26 27 28
10 10 10 10 10 10 11 11 12 11 11 13 13 14 16 16 16 17 18 18 18 19 19 19 20 20 20 20 20 20 21 21 21 21 23 24 24 24 25 27 27 28 28 29
9 9 9 10 10 10 12 11 11 11 11 12 12 12 15 16 16 16 17 18 18 19 19 20 21 21 22 22 22 21 22 23 22 22 23 24 25 26 27 28 28 29 30 30
8 8 9 9 9 10 11 10 11 11 11 12 13 12 14 15 16 17 17 18 18 19 20 21 21 21 21 22 22 22 23 24 24 24 24 24 25 26 27 28 29 30 31 32
7 8 9 9 10 10 10 9 9 9 11 12 15 14 15 15 15 16 17 17 18 18 19 20 20 20 21 21 23 23 23 23 24 24 24 25 25 26 27 29 30 31 32 32
6 7 8 8 9 10 10 10 10 10 11 12 15 14 14 14 15 16 16 16 17 17 17 18 19 20 21 22 23 22 23 25 25 25 25 25 26 26 27 28 29 29 30 31
7 9 8 8 8 9 9 10 12 12 12 12 14 15 14 14 15 16 16 17 17 18 18 19 20 21 21 23 23 22 23 25 25 25 25 24 24 24 24 25 25 26 27 27
7 8 8 8 9 9 9 10 10 9 10 11 13 14 15 15 15 16 16 17 18 19 20 20 21 21 22 23 23 23 23 24 24 24 24 23 22 23 23 23 23 24 24 24
7 7 8 8 8 9 9 10 10 11 12 11 12 14 15 15 15 16 16 17 18 19 20 20 20 21 22 23 23 23 23 23 23 23 22 22 22 22 22 23 23 23 23 23
7 7 8 9 8 9 10 10 10 11 12 12 13 15 15 15 16 16 16 17 17 18 19 19 20 21 21 22 22 22 22 22 22 21 20 20 20 21 22 22 23 22 22 22
6 7 7 7 8 8 9 9 9 11 12 12 13 16 16 16 16 16 16 17 17 18 18 19 20 20 21 22 21 21 21 21 21 20 19 19 19 20 20 21 20 20 20 20
6 6 6 7 8 8 8 9 9 10 11 13 14 15 16 16 16 16 16 17 17 17 18 18 19 20 20 20 20 21 20 19 19 18 18 18 18 18 19 19 18 18 18 18
6 6 6 6 7 7 8 9 9 10 11 12 14 14 15 15 16 16 16 16 17 17 17 18 18 19 19 19 19 18 18 18 17 17 17 17 17 17 17 17 16 16 16 16
6 5 5 6 6 7 7 8 9 10 11 12 13 14 13 14 14 15 16 16 16 16 17 17 17 17 17 17 17 18 18 17 17 16 16 16 16 16 15 15 14 14 14 14
5 5 5 5 6 7 7 8 9 9 10 11 12 13 12 13 14 15 16 15 16 16 16 16 16 15 15 16 16 17 16 15 15 14 14 15 15 14 14 14 13 13 13 13
5 5 5 5 6 6 7 8 8 10 10 11 12 13 13 14 14 14 14 15 15 16 16 16 14 14 14 15 15 14 13 13 13 12 12 12 12 12 11 11 11 11 11 10
4 4 4 4 6 7 8 8 9 10 10 10 11 12 12 12 13 13 13 14 15 14 15 14 13 13 13 13 13 12 11 11 10 10 10 10 10 10 9 9 9 9 9 9
3 4 4 5 6 7 8 8 8 9 9 10 11 11 11 11 11 12 12 13 14 14 14 13 12 11 11 10 9 9 9 8 8 8 9 8 8 8 8 8 8 8 8 7
3 4 4 5 6 7 7 8 7 8 9 9 10 10 11 11 11 11 12 13 14 13 12 11 10 10 9 8 7 6 7 7 7 7 7 7 7 7 7 7 7 6 6 6
4 4 4 5 6 7 7 7 7 7 8 9 9 10 10 11 11 11 11 11 11 10 9 9 8 7 6 6 6 6 5 5 5 6 6 6 7 7 6 7 6 6 6 6
4 4 5 5 5 6 6 7 7 7 8 9 9 10 10 11 11 10 11 10 9 8 8 7 6 5 5 4 4 4 4 4 5 6 6 6 6 6 6 6 6 7 7 7
5 4 4 5 4 5 5 6 7 7 7 8 9 10 10 11 10 10 10 9 8 7 6 6 5 4 4 3 3 4 4 4 5 5 5 6 6 7 7 7 7 8 9 9
5 4 4 4 4 5 5 6 7 7 8 9 10 11 10 10 10 10 9 8 7 7 6 5 5 4 4 3 4 4 4 4 4 5 5 6 6 7 7 7 8 8 9 10
5 5 5 5 5 5 5 5 6 8 8 9 10 10 10 10 10 10 9 8 8 7 6 5 4 4 5 5 5 5 5 5 5 6 6 7 7 8 8 8 8 9 9 10

GEFSCGP_500_meanwind_150.txt.gz
Wind_Speed
8 10 9 9 10 10 10 11 13 13 15 14 14 18 18 19 19 19 21 21 20 21 22 22 21 20 20 21 21 22 22 22 23 22 22 23 23 24 24 24 25 26 27 27
8 7 8 9 11 13 13 13 14 14 17 16 16 19 18 21 21 21 21 21 20 21 22 22 21 21 21 21 22 22 23 24 24 24 24 24 25 25 25 26 26 27 27 27
6 4 7 11 13 13 13 13 14 16 17 16 17 19 19 20 21 21 21 21 20 21 21 21 22 22 22 23 23 24 24 25 25 25 25 26 27 27 27 27 27 27 26 27
6 9 11 12 11 11 11 12 15 16 17 17 17 19 19 21 21 19 20 20 21 21 22 22 22 22 22 22 23 24 25 25 26 25 26 27 28 28 28 28 29 29 29 29
7 10 11 11 10 12 12 14 16 16 17 18 19 19 21 22 22 19 19 20 21 22 23 23 23 23 22 23 24 24 24 25 25 25 26 27 28 30 30 30 30 29 30 31
9 11 10 11 13 14 14 15 16 16 17 20 19 21 21 21 20 20 19 19 20 23 21 22 23 23 23 23 24 24 25 24 25 26 26 28 29 30 30 30 29 30 30 31
8 9 10 11 11 12 12 12 13 15 17 19 18 20 21 20 19 20 21 20 20 21 20 21 23 23 24 25 25 25 25 25 26 27 27 28 29 29 29 29 29 29 29 29
9 11 10 10 10 11 12 13 15 16 18 18 17 19 19 18 20 22 22 23 22 20 21 22 23 23 24 24 24 25 26 26 26 27 28 29 29 28 27 26 26 27 27 27
9 10 10 11 11 11 10 12 14 16 17 17 16 16 17 18 21 22 23 23 21 20 21 21 23 23 24 24 25 25 25 26 26 26 27 27 27 27 26 25 25 24 25 26
8 9 9 10 11 11 12 13 14 15 15 16 13 15 16 18 19 20 21 22 22 21 21 21 22 23 23 23 24 25 25 25 25 25 26 26 26 26 25 24 24 24 25 25
11 11 10 10 10 11 12 13 13 14 15 15 17 19 20 19 19 20 20 21 21 22 22 22 23 24 24 24 24 25 24 25 25 25 25 25 25 24 24 24 23 24 24 24
12 12 11 10 11 12 13 14 15 17 17 18 19 21 21 21 22 22 22 23 22 23 23 23 23 24 24 24 23 24 24 23 23 23 24 24 23 24 24 23 23 23 23 22
11 11 11 10 12 12 12 12 13 16 17 17 19 21 23 22 22 23 23 23 23 24 24 24 24 23 23 23 23 23 23 22 23 23 23 24 23 23 23 23 22 21 21 21
11 11 12 11 11 10 10 11 13 15 16 18 19 21 22 22 22 22 22 22 22 23 23 23 22 22 22 22 22 22 21 21 21 22 23 23 22 21 21 21 20 20 20 20
11 11 11 10 9 10 10 12 13 15 16 17 18 19 20 21 22 22 22 22 22 22 22 21 21 21 21 21 20 20 20 19 19 20 20 20 20 20 19 19 18 19 19 19
10 9 9 8 8 9 11 13 14 15 16 17 18 19 18 19 20 20 21 21 22 21 20 20 20 20 20 19 19 19 19 18 19 18 18 18 18 18 17 17 17 17 17 17
9 8 8 8 9 9 11 12 13 14 16 17 18 18 18 19 19 19 20 20 20 19 19 19 18 18 18 18 18 17 16 16 16 16 15 16 16 15 15 15 15 15 15 15
9 8 8 9 9 11 10 11 13 14 15 16 17 17 17 18 18 18 18 19 18 18 18 17 16 16 16 16 15 15 14 14 13 13 13 14 14 13 12 12 12 12 12 12
8 8 8 8 9 11 11 12 14 15 15 15 16 17 17 18 18 18 18 18 18 18 17 15 15 14 13 13 13 13 11 11 11 11 12 11 11 11 10 11 11 11 10 10
7 8 7 7 9 10 11 12 13 14 15 15 15 16 17 17 17 18 18 18 17 17 15 14 13 12 12 12 11 10 9 9 9 9 9 9 9 8 9 10 10 10 9 8
7 8 8 8 9 10 11 12 12 13 14 15 15 15 15 16 16 16 16 16 15 14 13 12 12 11 10 9 9 8 8 8 8 7 7 6 6 7 8 8 9 9 9 8
8 8 8 9 10 10 11 11 11 12 13 13 13 14 14 14 14 15 15 14 13 12 11 10 10 9 9 8 8 7 7 6 6 6 5 6 7 7 8 8 8 8 9 9
9 8 8 8 9 10 9 10 10 11 11 12 13 13 13 13 14 14 13 12 11 9 9 8 8 7 7 6 6 6 5 4 4 4 4 5 7 7 7 7 7 7 8 8
7 7 8 8 9 9 9 9 10 10 11 11 11 12 12 13 13 13 11 10 9 9 8 6 6 5 5 5 5 4 3 3 3 3 5 5 6 6 7 7 7 7 7 8
8 9 8 8 9 9 9 8 9 9 10 10 10 11 12 12 13 12 10 9 9 8 7 6 5 5 5 4 4 3 3 3 4 4 5 5 6 7 7 7 7 7 8 8
8 8 9 9 9 9 8 8 8 8 8 9 10 10 11 11 11 10 10 9 8 7 7 7 6 5 5 5 4 4 3 4 4 4 5 5 6 6 6 7 7 8 8 8

GEFSCGP_500_meanwind_156.txt.gz
Wind_Speed
14 15 14 14 14 15 14 12 10 9 10 11 11 12 12 13 14 14 15 16 16 17 17 18 19 19 18 19 19 20 20 21 21 22 22 23 23 24 24 23 23 23 24 24
13 13 13 14 14 14 13 10 9 9 10 12 12 13 14 14 15 16 17 18 18 17 17 19 21 21 19 19 20 21 20 21 22 22 23 24 24 24 23 24 24 24 24 25
12 12 14 13 12 11 11 10 10 11 12 15 16 17 16 17 18 18 19 18 18 17 18 19 20 21 21 21 21 21 21 21 22 23 23 24 24 24 24 24 24 24 25 26
13 13 12 12 11 11 10 10 11 12 14 16 19 20 19 20 20 20 19 18 19 18 18 19 19 20 21 21 21 21 21 22 23 24 24 25 24 25 25 24 24 25 26 27
12 12 11 10 9 10 11 12 13 13 15 17 18 21 21 21 21 21 21 19 18 18 18 19 18 20 21 21 21 20 21 23 24 25 25 25 26 26 26 25 26 26 27 27
11 11 10 9 10 12 14 14 15 15 16 18 19 22 23 23 22 22 21 20 20 19 18 19 19 20 21 21 21 23 23 23 24 25 26 26 27 27 26 27 27 27 27 26
10 10 9 9 10 12 13 15 16 17 18 19 20 22 23 23 23 22 21 21 21 19 18 18 19 20 21 21 21 22 22 24 25 26 26 27 27 27 26 27 27 27 26 26
9 10 10 10 11 12 13 14 16 18 19 18 19 22 23 24 23 22 22 21 20 19 18 19 20 20 20 20 21 22 22 23 24 25 25 26 26 25 26 26 26 26 26 26
10 9 10 11 12 12 13 15 16 18 19 20 19 20 21 21 21 19 19 19 19 19 19 20 20 20 21 22 21 22 23 23 24 24 25 26 25 25 24 25 25 26 25 25
9 10 10 11 12 13 14 15 16 17 18 19 20 20 18 17 18 17 16 18 20 20 19 20 20 20 21 22 22 21 22 22 23 24 24 24 24 24 24 24 23 24 23 23
10 11 11 12 12 13 14 15 15 16 18 19 19 19 17 17 17 17 18 18 18 19 19 19 20 21 21 21 21 21 21 22 22 22 22 22 23 23 24 23 23 23 21 21
11 11 11 12 13 13 14 15 15 16 16 18 19 19 18 18 18 18 18 18 18 18 19 19 19 20 20 20 21 21 21 21 20 20 20 21 21 22 21 21 21 20 20 20
12 12 12 12 13 13 15 15 16 17 17 17 17 19 19 19 18 18 19 19 18 19 18 19 20 20 19 20 21 20 19 19 19 19 19 19 19 20 19 19 19 19 19 19
11 12 12 13 13 14 15 15 15 17 17 17 17 17 17 17 17 18 18 18 18 18 18 18 18 18 18 18 18 18 17 16 17 17 17 18 18 17 17 17 18 18 17 17
12 11 12 12 13 14 14 14 14 15 17 17 16 16 16 17 18 18 18 18 18 17 18 18 16 16 17 17 16 16 15 16 16 16 16 15 15 15 15 15 16 16 16 15
12 11 12 12 13 13 14 13 14 15 16 15 15 15 16 16 16 17 18 18 18 18 18 17 16 16 16 16 16 15 14 14 15 15 14 14 13 13 14 14 15 15 14 13
11 11 11 12 12 13 12 11 12 13 14 14 14 15 16 16 16 17 17 17 18 17 17 16 16 16 16 15 14 13 13 14 14 13 12 12 12 12 12 13 13 13 12 11
11 11 11 12 12 11 10 10 11 12 13 13 13 15 15 15 16 17 17 17 18 17 17 16 16 15 14 14 13 12 12 12 12 11 10 11 10 10 11 11 12 11 11 10
10 10 10 11 10 10 10 10 10 11 11 12 13 14 15 16 17 17 17 17 17 17 16 15 14 13 12 11 11 10 10 11 10 9 9 9 9 9 9 10 10 10 10 9
8 9 9 10 10 9 9 9 9 10 10 12 13 14 16 16 17 17 17 16 16 15 14 12 11 10 9 9 8 8 8 8 8 7 7 7 7 7 7 8 9 9 9 8
7 7 8 9 9 8 8 8 9 9 11 12 13 14 15 15 16 16 15 14 13 12 11 10 9 7 7 7 6 6 6 6 6 6 6 6 6 6 6 7 7 8 8 8
7 7 8 8 8 8 8 9 9 9 10 12 12 13 13 14 14 14 13 12 10 9 8 7 6 6 6 5 5 5 4 4 4 4 5 5 5 6 6 7 7 7 8 8
7 7 7 7 7 7 7 8 8 9 10 11 11 11 12 12 12 11 11 10 8 7 6 6 6 5 5 5 4 4 4 4 3 4 5 5 5 5 6 6 7 7 8 8
7 7 7 7 8 8 7 7 7 8 9 10 9 10 11 11 11 11 10 9 7 6 5 5 5 5 5 5 4 4 4 4 4 4 5 5 5 5 5 6 6 7 7 8
7 7 7 7 7 7 7 6 6 7 9 8 9 10 10 11 11 10 9 8 7 7 6 5 5 5 5 5 5 5 5 5 5 5 5 5 5 5 5 5 6 7 7 7
7 7 7 7 7 7 6 6 6 7 8 8 8 9 9 10 10 9 9 8 7 7 6 6 6 6 6 6 6 6 5 5 5 5 6 5 5 5 5 6 6 6 6 6

GEFSCGP_500_meanwind_162.txt.gz
Wind_Speed
15 16 17 18 18 19 19 19 19 20 20 20 20 19 18 17 17 17 17 17 18 18 19 20 19 19 19 20 22 21 21 21 22 23 23 22 23 25 25 24 24 24 25 25
14 15 16 16 17 18 18 19 19 21 21 21 20 18 18 18 17 17 17 18 19 20 20 20 20 20 20 21 22 23 22 22 22 23 23 23 24 25 24 25 26 26 27 27
13 14 15 15 16 16 17 17 18 20 21 20 20 19 19 20 20 19 18 19 20 21 21 21 20 21 21 22 22 23 23 23 24 24 25 25 25 25 25 26 26 27 28 28
13 13 14 14 14 15 16 16 17 18 19 19 20 20 19 19 19 19 20 20 21 21 21 21 21 21 22 22 23 23 23 24 25 25 26 26 27 26 27 28 28 28 28 28
12 12 12 13 13 14 15 16 17 17 18 19 19 19 18 18 18 18 19 20 21 22 22 22 22 23 23 23 23 23 23 24 25 27 27 27 27 27 28 28 29 28 28 28
11 11 11 12 13 14 14 15 16 17 18 19 19 20 18 18 18 19 20 21 22 22 22 23 23 23 23 22 23 24 24 25 25 26 26 26 26 26 27 27 28 28 28 28
11 11 12 12 13 13 14 15 16 17 18 19 19 20 19 19 19 20 20 21 21 22 22 22 22 23 23 23 23 24 24 25 25 25 26 26 25 25 26 27 27 27 27 28
11 11 12 13 14 14 15 16 17 18 19 19 19 20 19 19 20 20 20 21 21 21 21 22 23 23 23 24 24 24 23 23 24 24 24 24 24 24 25 25 26 27 27 28
11 12 12 14 15 15 16 16 17 19 19 19 19 18 18 19 20 20 20 20 20 21 21 22 23 23 24 24 24 24 23 22 22 22 22 23 22 23 24 24 25 25 26 26
12 13 13 14 15 15 16 17 17 18 19 19 18 18 18 18 19 20 21 22 22 22 22 22 22 23 24 24 24 23 22 22 22 21 21 21 20 21 22 22 23 24 24 24
13 13 14 15 15 16 16 17 17 17 18 19 19 18 19 20 21 21 21 21 21 22 22 22 22 23 23 22 22 23 22 21 21 21 20 19 19 20 21 22 22 22 21 21
13 14 14 15 15 16 17 17 17 18 18 19 20 19 19 19 20 20 20 20 21 21 22 22 21 21 21 21 21 22 21 20 20 19 19 19 19 19 20 19 19 19 19 20
13 14 14 14 15 15 16 17 17 18 18 19 19 18 18 18 19 19 20 20 20 21 21 21 20 20 20 20 20 19 19 19 19 18 17 17 17 17 17 17 18 18 18 18
15 15 15 16 16 15 16 16 16 17 18 18 18 18 18 18 19 19 20 19 20 20 20 19 19 19 19 19 19 18 17 17 17 16 15 15 15 15 16 16 16 17 17 16
16 16 16 16 16 16 15 15 16 16 18 19 18 18 18 19 20 20 19 19 20 20 20 19 18 18 17 17 16 16 16 15 14 14 14 14 14 15 15 15 15 16 15 15
16 16 16 15 15 16 16 16 16 17 18 19 18 18 18 19 19 19 19 19 19 19 19 19 18 17 17 16 15 15 14 13 12 12 13 13 14 14 14 14 14 14 14 14
16 16 16 15 15 14 14 14 15 16 16 17 17 17 17 17 18 18 18 18 19 19 18 18 17 17 16 15 15 13 12 12 11 11 12 12 12 12 13 13 13 13 12 12
16 16 16 15 14 14 13 13 14 15 16 16 15 16 16 16 16 16 16 16 17 17 16 16 16 15 15 13 12 11 11 11 10 10 11 11 11 12 12 13 13 12 11 10
15 15 14 14 15 14 13 13 13 14 14 14 14 14 15 15 14 14 14 14 15 14 15 15 14 13 12 11 10 9 9 8 8 8 9 9 10 10 11 11 11 10 9 9
14 14 14 14 15 14 12 12 13 13 12 12 12 13 13 13 13 13 13 13 13 13 13 12 11 10 9 8 7 7 7 7 7 7 8 8 9 9 10 10 10 9 9 9
13 13 13 13 13 12 12 12 12 11 11 11 11 11 12 12 12 12 12 12 12 11 11 10 9 7 7 6 6 6 6 6 6 6 7 7 7 8 8 8 9 8 8 8
13 13 12 12 12 11 11 11 10 10 10 10 10 10 11 11 11 11 11 10 10 9 9 8 7 6 6 6 5 5 5 5 5 5 5 6 6 7 8 8 8 8 7 8
13 12 12 12 11 10 10 10 9 9 9 9 9 10 10 10 10 9 9 9 8 8 8 7 6 6 6 5 5 4 4 4 4 4 5 5 6 6 7 7 8 8 8 8
13 12 12 11 10 10 9 8 8 8 8 8 9 9 9 8 8 8 8 8 8 7 7 6 6 6 5 4 4 4 4 4 4 5 5 6 6 6 7 7 8 8 8 8
13 12 12 10 9 9 8 7 7 8 7 7 7 7 8 8 8 8 7 7 7 7 7 6 6 5 4 4 4 4 4 5 5 5 6 6 6 6 7 7 8 8 8 9
12 12 11 10 8 8 7 6 6 6 5 5 5 6 7 8 8 7 7 7 7 7 7 7 6 5 5 5 5 5 5 5 5 5 6 6 6 6 6 6 7 8 8 8

GEFSCGP_500_meanwind_168.txt.gz
Wind_Speed
10 10 10 11 13 14 14 14 14 15 15 15 15 16 17 18 18 19 19 20 20 21 21 21 22 22 22 21 22 21 21 22 22 23 23 24 24 25 26 26 27 28 29 29
9 9 10 11 11 12 13 13 14 15 15 15 16 16 18 19 19 19 20 20 21 21 22 22 21 21 21 22 22 22 22 23 24 24 24 25 25 26 27 28 28 29 30 31
9 10 10 10 11 11 11 12 13 14 15 16 16 17 19 19 20 20 20 21 22 22 21 21 22 22 22 22 22 22 22 23 24 25 25 25 26 27 29 29 28 29 29 30
8 9 9 10 10 11 11 13 14 14 14 15 16 15 18 19 18 19 20 21 22 22 23 23 23 23 23 23 23 23 23 24 25 26 26 26 27 28 28 28 27 28 29 30
7 8 8 9 10 10 12 12 13 14 15 15 16 16 16 18 18 19 20 21 22 23 23 23 23 23 23 23 22 22 23 24 25 25 26 27 27 28 28 29 29 29 30 29
7 7 9 10 11 11 11 10 11 12 13 13 15 16 16 18 19 20 21 22 22 23 23 23 23 23 23 23 22 23 24 24 24 25 26 27 28 28 29 29 28 28 29 29
7 8 9 10 11 10 10 10 9 10 11 12 16 17 17 18 19 19 20 21 21 22 22 23 23 23 23 24 24 24 24 24 25 26 27 27 27 28 28 28 28 28 28 29
8 9 10 10 11 11 11 10 10 12 13 14 17 17 17 17 18 18 19 20 21 21 21 22 22 23 23 24 24 24 25 26 26 27 27 28 27 27 26 27 26 27 26 26
10 11 11 11 12 12 12 13 13 14 15 15 16 17 17 17 18 18 19 20 21 21 22 22 23 23 23 23 24 25 26 27 27 28 28 27 26 24 25 25 24 25 25 25
11 12 12 12 13 13 14 15 15 14 15 16 16 17 18 19 19 19 20 20 21 21 22 22 23 24 24 24 24 25 26 27 27 27 26 26 24 23 23 23 23 23 23 22
11 12 12 14 14 15 16 16 16 16 17 16 16 17 19 20 19 19 20 20 20 21 22 22 23 23 24 24 24 25 26 26 26 25 23 23 22 22 22 22 22 22 21 20
13 13 13 14 15 15 16 16 17 17 17 18 18 18 19 19 19 19 20 20 20 21 21 22 22 22 22 23 24 25 24 24 23 23 21 21 21 21 20 20 19 19 19 19
15 14 14 14 15 15 16 16 17 17 18 19 18 19 20 20 20 20 20 20 20 20 20 21 21 21 22 22 23 22 22 22 21 21 19 20 19 18 18 18 18 18 18 18
16 16 15 14 15 16 17 16 17 17 18 18 19 19 20 21 21 20 20 20 19 20 20 20 19 19 20 20 20 20 19 19 19 18 17 16 16 15 16 16 16 16 16 16
17 17 17 16 16 17 16 16 17 18 18 18 18 19 19 20 20 19 19 19 19 19 19 19 18 18 18 18 18 17 17 16 15 15 14 14 14 14 14 14 14 14 14 14
19 18 17 18 17 17 17 17 17 18 17 18 18 18 18 19 18 18 18 17 17 18 18 18 17 16 16 16 15 14 14 13 12 12 12 12 12 12 12 12 13 12 12 12
19 18 18 18 18 18 18 17 17 17 17 17 18 17 17 17 16 16 16 16 17 17 16 16 16 15 14 13 13 12 12 11 11 11 11 11 11 10 11 11 11 11 11 11
19 18 18 18 18 19 17 17 17 16 16 17 17 16 16 15 14 15 15 16 16 15 15 14 14 13 11 11 10 10 10 9 10 10 10 10 10 10 10 10 10 10 10 10
18 18 18 18 18 18 17 17 16 16 15 16 15 14 14 13 13 13 14 14 14 13 13 12 11 11 10 10 9 10 9 9 9 9 9 9 9 9 9 9 10 10 10 9
18 17 18 18 18 17 16 15 14 15 14 14 12 12 12 12 12 13 13 12 12 12 11 11 10 10 9 9 8 8 7 7 7 8 8 7 7 8 9 9 9 9 9 9
18 17 17 16 16 16 14 13 12 12 12 10 10 10 10 11 11 11 11 11 11 11 10 9 8 8 7 7 6 6 6 6 6 6 7 7 7 8 9 9 9 9 9 8
18 17 16 16 16 15 12 11 11 11 10 9 9 9 9 9 9 9 10 10 9 9 8 7 7 6 6 6 5 5 4 5 5 6 7 7 7 7 8 8 8 8 8 9
18 17 16 16 15 13 12 11 10 10 9 9 8 8 7 8 8 8 8 8 8 8 7 7 6 6 5 5 4 4 4 4 4 5 6 6 6 6 7 7 8 8 8 9
18 18 17 16 14 12 11 10 9 8 7 7 7 7 6 7 6 6 6 7 7 7 6 6 5 4 4 4 3 4 4 3 4 4 5 5 6 6 6 6 7 8 8 9
19 18 17 16 14 13 11 10 8 8 7 6 6 6 6 5 5 5 5 5 6 6 5 5 4 4 4 3 3 3 4 4 4 4 4 5 5 5 5 6 7 8 9 9
19 18 17 16 14 13 11 9 8 7 6 5 4 4 4 4 4 4 4 4 5 5 5 5 4 4 3 3 2 3 4 4 4 4 5 5 5 5 5 5 6 7 8 8

GEFSCGP_500_meanwind_174.txt.gz
Wind_Speed
6 6 5 7 9 10 10 9 10 12 13 13 14 16 18 19 18 19 20 20 21 22 23 24 24 25 25 25 25 25 25 26 27 28 28 28 26 27 27 28 28 29 29 30
3 2 4 6 9 9 7 9 10 12 14 12 14 15 16 19 19 19 20 22 23 23 24 24 25 25 26 26 26 27 27 27 28 28 28 27 26 27 27 28 29 29 30 31
3 4 6 6 7 7 9 10 10 11 13 13 13 14 15 17 20 20 21 23 25 25 24 25 26 26 26 26 26 27 27 27 28 28 27 27 27 28 28 29 29 30 31 32
3 5 6 7 9 10 9 11 12 12 12 13 12 15 16 18 20 22 23 24 24 25 25 26 26 25 26 26 26 27 27 27 28 27 27 28 28 29 29 30 30 31 32 31
3 4 6 7 9 11 9 11 11 10 11 13 13 16 17 18 21 22 23 25 25 26 26 26 26 25 25 25 25 26 27 27 27 26 27 29 29 29 29 30 30 30 30 30
4 6 8 8 9 10 10 10 10 11 13 16 15 16 18 19 21 23 25 27 27 27 26 27 27 26 26 26 26 26 26 26 26 26 27 28 29 29 29 29 30 29 29 29
6 9 10 10 9 9 10 10 11 13 15 16 13 14 17 20 22 23 26 26 27 27 27 27 27 26 26 26 26 26 27 26 26 27 27 28 29 29 29 29 29 28 28 28
8 10 10 12 11 10 10 11 13 15 15 15 16 16 19 20 23 24 26 27 27 27 27 26 27 26 26 26 26 26 26 26 27 28 28 29 29 29 29 29 28 28 27 27
10 9 9 12 12 10 10 11 14 16 17 17 16 17 22 22 25 26 25 25 26 26 26 26 26 26 26 26 26 26 26 26 27 28 28 29 29 29 28 28 28 28 27 27
13 12 10 11 12 12 11 12 14 16 18 18 17 20 22 23 25 27 25 25 25 26 27 26 26 25 25 25 25 26 26 27 27 27 27 28 28 28 28 27 27 27 27 26
13 13 12 13 13 14 14 14 16 17 17 19 21 23 24 26 26 26 25 25 26 27 27 26 25 25 25 25 26 25 26 26 26 27 27 27 27 27 27 26 26 25 25 24
14 14 14 14 15 15 15 16 17 18 19 20 23 25 25 27 25 25 26 26 27 27 26 26 25 25 24 25 25 25 25 26 26 26 26 25 25 25 24 24 23 22 21 21
16 17 16 15 16 16 17 16 17 19 21 21 23 25 25 25 26 26 27 27 26 26 25 25 25 24 24 24 24 23 24 23 23 23 23 22 22 22 22 22 20 19 19 19
19 19 19 19 17 16 17 17 17 20 21 22 24 26 24 25 25 26 27 26 25 25 24 24 24 23 23 22 22 22 21 21 21 20 20 20 20 20 20 19 18 17 17 16
22 21 21 20 20 19 18 18 18 20 22 22 23 24 23 23 24 24 25 24 24 23 23 23 22 21 21 20 19 19 19 18 17 17 17 17 17 17 17 16 16 15 14 14
23 23 22 22 21 19 19 19 19 19 21 22 23 24 24 23 23 23 24 24 23 22 21 21 20 19 18 18 17 17 16 15 15 15 15 15 15 15 14 14 13 13 13 13
23 24 24 23 22 21 19 18 19 19 20 22 22 24 23 22 21 21 22 23 22 21 20 19 18 18 17 16 15 15 14 13 13 13 13 13 14 13 13 12 12 13 13 13
24 23 23 22 22 22 18 18 19 20 20 21 23 24 23 22 21 19 20 21 20 19 19 18 17 16 15 14 14 14 13 12 12 12 12 13 13 12 12 13 13 13 13 13
24 23 22 22 21 21 19 19 19 20 20 20 21 21 22 21 21 19 18 18 19 18 18 17 16 15 14 13 13 12 11 11 11 12 12 12 12 12 13 13 13 12 13 12
22 21 22 22 22 22 19 17 17 18 19 18 19 20 19 19 19 17 17 17 17 17 16 15 14 13 13 12 12 11 10 10 10 11 11 11 11 12 12 12 12 12 13 12
21 21 21 21 22 21 17 15 16 17 18 17 17 17 17 17 17 16 16 15 15 14 14 13 12 11 11 11 10 10 10 10 10 10 11 11 11 11 11 11 11 12 12 12
22 22 22 21 21 19 16 16 16 17 18 17 16 15 15 15 15 15 14 14 13 13 12 11 10 10 10 10 10 10 10 10 10 10 9 10 10 11 11 11 11 12 12 11
24 23 23 22 22 19 18 18 17 17 16 16 16 14 14 13 13 13 13 12 11 10 10 10 10 10 9 9 9 9 9 9 9 9 9 9 10 10 10 10 11 11 11 11
26 24 24 24 22 20 19 17 17 17 16 15 14 14 14 13 11 11 11 10 9 9 9 9 9 9 9 9 8 9 8 8 8 8 8 9 9 9 10 10 10 11 11 11
23 24 24 23 21 20 19 17 16 16 15 15 14 13 13 12 10 9 9 9 8 7 7 8 8 8 8 8 8 8 7 8 8 7 7 8 9 9 9 10 10 10 11 11
22 23 23 22 18 19 20 18 17 17 15 13 13 12 12 11 9 9 8 8 7 6 6 6 7 7 7 7 7 7 7 7 8 7 7 8 9 9 10 10 10 10 11 11

GEFSCGP_500_meanwind_180.txt.gz
Wind_Speed
7 5 5 6 7 6 7 8 9 10 11 12 13 14 14 15 15 14 14 15 14 15 16 19 19 20 20 21 23 23 23 24 25 25 25 25 26 27 27 27 27 28 28 28
5 4 4 5 5 6 7 8 9 9 10 12 13 14 15 16 16 16 16 17 15 15 16 18 19 21 21 23 25 25 24 25 25 25 25 26 26 25 26 26 27 28 28 29
2 2 3 4 5 6 7 8 8 8 10 11 13 14 16 16 17 17 17 17 16 16 17 17 19 21 23 24 24 24 25 25 25 25 26 26 26 25 25 26 26 26 26 27
1 0 2 4 4 3 5 7 8 8 10 12 14 16 16 16 16 16 16 17 18 18 19 19 20 21 22 23 23 23 25 25 25 25 25 25 25 26 26 26 26 25 26 27
1 1 2 2 3 4 5 7 9 10 12 13 13 16 16 17 18 16 17 17 18 19 19 20 21 23 23 24 24 25 25 25 25 25 25 26 26 27 27 26 25 26 26 26
2 3 4 4 4 6 8 10 10 10 12 13 12 14 14 15 15 16 18 18 18 19 19 21 23 24 24 25 26 26 26 25 25 25 25 26 26 27 26 26 26 26 26 26
4 5 6 7 7 7 9 12 12 13 14 14 14 17 16 15 16 17 17 18 18 20 21 21 23 25 25 25 26 26 26 25 25 25 26 26 26 26 26 26 26 25 25 25
6 6 6 7 8 9 10 12 13 15 15 15 16 17 16 16 16 16 17 18 19 20 22 23 24 25 25 25 25 25 25 24 24 24 25 25 25 26 26 26 26 25 25 25
10 9 9 9 10 11 11 13 13 15 17 17 17 16 16 16 16 17 18 19 19 21 23 23 24 24 24 24 23 23 23 24 23 23 23 24 25 25 25 25 24 24 24 23
13 12 11 12 12 13 14 15 16 17 18 19 17 16 17 17 19 19 19 19 21 22 23 23 24 23 22 22 21 22 23 22 22 22 22 23 24 25 24 24 24 23 22 22
15 15 13 14 15 16 17 18 18 19 19 20 20 18 18 20 20 20 21 22 23 23 23 22 22 22 21 20 21 21 20 20 20 21 22 23 24 23 23 23 22 21 20 20
17 17 16 15 16 18 18 19 20 22 21 21 23 22 20 20 21 21 22 22 22 22 21 20 20 20 19 19 19 19 19 19 19 20 21 22 22 22 21 21 20 19 19 19
19 19 19 17 17 18 19 20 22 23 24 24 24 23 22 21 20 20 21 21 21 21 21 20 19 19 19 18 18 18 18 18 19 19 20 20 20 19 19 18 18 17 17 17
21 21 21 21 19 20 20 20 21 23 24 24 23 23 22 22 20 20 20 20 21 20 20 20 18 17 17 17 17 17 18 18 18 18 18 18 18 17 17 17 16 16 15 15
21 22 23 23 23 23 22 21 21 22 23 24 23 23 22 21 19 18 19 19 19 19 19 18 17 17 18 18 17 17 17 17 17 17 16 16 16 16 16 16 15 15 14 15
22 24 24 24 23 24 23 22 22 22 23 23 23 23 22 21 19 20 19 18 19 19 18 17 17 17 17 17 16 16 16 16 15 15 15 14 14 15 15 14 14 14 13 13
23 24 25 24 24 25 23 21 22 22 23 22 22 21 20 19 18 18 19 18 18 18 18 18 18 18 16 16 15 15 15 15 15 14 14 14 13 14 14 13 13 13 12 12
23 23 24 24 24 24 20 20 21 22 21 20 19 18 17 17 17 17 17 17 16 16 17 17 17 16 16 15 14 14 14 14 14 14 13 13 13 13 12 12 12 12 12 12
22 23 23 23 25 24 20 19 20 21 19 19 18 17 16 17 16 16 16 16 16 15 16 16 15 14 14 13 12 13 13 13 13 13 12 12 12 12 12 12 12 12 12 12
20 22 23 24 24 24 20 19 19 19 18 17 17 16 15 15 15 15 15 15 15 14 14 13 13 13 13 12 12 12 12 12 12 12 12 12 11 11 12 12 12 12 11 11
21 21 22 23 23 23 21 19 18 18 18 16 15 14 13 14 14 14 15 15 14 14 12 11 12 11 11 11 11 11 11 11 11 11 11 11 11 11 11 12 11 11 11 11
20 21 21 21 22 21 19 18 18 18 17 16 14 14 13 13 14 13 13 13 14 13 11 10 10 10 10 10 10 10 10 10 10 10 10 10 10 10 11 11 11 11 11 11
19 19 20 21 20 19 18 17 17 17 17 16 15 13 12 12 13 12 12 12 12 12 11 10 9 9 9 9 9 10 10 9 9 9 9 9 9 9 10 10 10 10 10 10
19 19 19 19 19 18 18 18 18 18 17 16 14 13 12 12 12 11 11 11 11 10 9 10 9 8 8 8 9 9 9 8 7 7 7 8 8 8 9 10 10 10 10 11
19 18 18 17 16 17 17 18 19 18 16 15 14 14 12 11 11 11 10 10 9 8 7 7 8 8 8 8 8 7 7 6 6 6 7 7 7 8 9 9 10 10 10 11
18 19 20 19 18 19 17 17 18 19 17 15 13 12 11 11 10 10 10 9 7 6 6 5 5 6 6 6 5 5 5 5 5 5 6 7 7 8 9 9 10 11 11 11

GEFSCGP_500_meanwind_186.txt.gz
Wind_Speed
2 4 6 6 6 7 9 10 10 12 13 14 15 16 16 18 19 19 18 18 19 19 19 19 19 20 20 21 21 22 23 23 23 25 25 26 27 27 28 27 28 28 29 29
2 3 4 6 7 8 9 9 10 11 13 14 16 17 17 18 18 18 19 19 20 21 19 19 21 21 21 22 22 23 23 24 24 25 26 26 28 28 28 27 28 29 29 29
2 4 6 7 8 8 9 10 11 12 13 15 16 16 17 17 17 18 19 19 19 20 19 19 19 20 21 22 23 23 24 25 25 26 27 27 27 27 28 28 28 29 30 30
3 4 6 8 9 10 10 11 12 13 13 14 15 15 15 16 16 17 17 17 18 18 19 19 19 19 21 22 23 24 24 25 24 25 26 27 27 27 28 28 28 29 29 28
4 5 7 8 9 11 11 12 12 12 12 13 14 17 15 16 16 16 17 17 18 18 19 20 20 21 22 23 24 25 25 25 25 25 26 28 28 28 27 27 28 28 27 27
7 7 8 8 8 9 9 10 11 11 12 12 14 15 15 15 16 17 17 17 18 19 20 21 21 22 22 23 24 24 25 25 26 26 26 27 28 27 27 27 27 27 27 27
9 9 8 9 10 9 10 11 12 13 13 14 15 15 15 15 16 16 16 16 16 17 18 20 21 21 22 23 23 24 25 25 25 24 25 26 26 26 26 26 27 27 26 26
10 10 11 11 12 12 12 13 15 17 17 17 17 16 15 15 16 16 16 15 15 15 17 19 19 19 20 21 22 23 24 23 23 23 24 25 25 25 25 26 26 26 25 25
11 11 11 12 13 14 14 14 16 18 20 20 19 16 15 16 15 15 15 16 16 16 17 18 18 19 20 21 22 22 22 21 22 22 22 23 23 23 24 24 25 25 24 23
14 13 13 13 14 15 16 17 18 19 21 21 19 17 17 17 15 15 16 16 17 17 18 19 18 19 19 19 19 19 18 20 21 21 21 22 22 22 23 23 24 23 23 22
17 17 15 15 16 17 17 18 19 20 21 22 21 19 19 19 18 17 18 18 18 18 17 17 17 18 18 18 17 16 17 19 20 20 21 20 20 20 21 21 22 22 22 22
19 19 18 18 19 19 19 19 20 21 22 23 23 21 19 20 20 19 19 19 19 18 18 18 17 17 17 17 17 17 17 18 19 19 20 19 18 19 20 21 21 21 21 21
21 21 21 19 20 20 21 21 23 23 23 24 25 24 22 21 20 20 20 20 19 19 18 17 16 17 17 17 17 17 18 19 19 19 19 19 18 18 19 20 21 21 20 19
23 23 22 22 21 22 22 23 23 24 25 25 25 24 22 21 21 21 21 20 20 19 19 18 17 17 17 17 17 18 18 18 18 18 19 18 18 18 19 20 20 20 19 18
24 24 23 23 23 24 24 24 25 25 26 26 24 24 23 23 22 21 21 21 21 20 19 18 18 18 18 18 18 18 18 17 18 18 18 18 18 18 18 19 19 19 18 17
25 25 25 24 24 26 26 26 26 26 26 26 26 25 24 24 23 22 21 21 20 20 18 18 18 17 17 18 18 17 17 17 17 18 17 17 18 18 19 18 18 18 17 16
25 25 25 25 24 26 25 25 25 25 25 25 25 25 24 23 21 20 20 19 19 19 18 18 18 18 19 18 18 18 17 17 17 17 17 17 18 18 18 18 18 17 16 16
24 25 25 25 24 24 24 24 24 25 25 25 24 24 23 22 21 19 18 18 18 18 18 17 17 17 16 16 17 17 17 16 16 16 16 16 17 17 18 18 17 16 16 16
24 25 25 24 24 23 23 23 23 24 25 24 23 23 22 21 20 19 19 18 18 17 16 16 16 16 16 16 16 16 16 15 15 14 14 15 16 16 17 16 16 16 16 16
23 24 24 23 23 23 23 24 22 22 22 22 22 22 22 21 19 18 18 17 17 16 16 15 15 15 15 15 14 14 14 13 13 13 14 14 15 15 16 16 15 15 15 15
23 23 22 22 22 23 24 23 21 21 21 21 21 22 21 20 19 18 18 17 16 16 15 15 14 15 15 13 12 12 13 13 13 13 13 14 14 14 14 14 14 15 15 14
23 23 22 23 23 23 23 22 22 22 21 21 21 21 20 19 18 17 16 16 15 14 14 13 13 13 13 12 11 11 12 12 12 11 11 11 11 12 13 13 13 14 14 14
23 23 23 23 22 22 23 22 21 21 21 21 21 20 19 18 17 16 15 15 14 13 13 12 11 11 11 11 10 10 11 11 10 10 10 10 10 12 12 12 13 14 14 14
23 23 23 22 21 21 21 20 19 20 20 20 20 19 18 18 16 15 15 14 13 13 12 11 10 11 11 11 10 11 11 10 9 8 8 9 10 11 11 11 12 13 14 14
22 22 22 21 20 20 18 19 19 18 19 19 20 18 17 17 16 15 14 14 12 12 12 11 10 10 10 9 9 9 9 8 7 7 7 8 9 10 10 11 12 12 13 14
21 22 21 20 19 19 19 19 19 19 18 18 18 17 17 17 16 16 15 14 12 11 11 11 9 9 8 7 7 7 6 6 5 6 6 7 8 9 10 10 11 13 14 14

GEFSCGP_500_meanwind_192.txt.gz
Wind_Speed
1 1 2 4 5 6 5 6 7 9 10 11 11 12 13 14 15 15 16 17 18 20 20 21 22 22 22 22 23 24 26 26 26 27 28 28 26 26 26 28 28 28 28 29
3 2 3 4 5 5 5 5 6 8 9 10 10 11 12 13 14 15 16 17 18 20 21 22 23 23 23 23 24 24 26 26 26 26 27 27 25 26 28 29 28 28 29 29
3 4 5 5 6 6 6 7 7 8 9 9 9 10 11 14 15 16 16 18 19 21 21 22 22 23 23 24 25 25 26 25 25 25 26 26 26 27 27 29 28 29 28 28
4 5 5 6 7 7 8 8 9 8 8 9 10 11 13 15 16 17 17 17 18 20 20 21 21 22 22 23 24 25 25 25 24 25 26 27 27 27 28 28 29 29 29 29
7 7 7 7 8 8 9 9 9 10 10 11 12 12 14 15 16 16 16 17 18 19 20 20 20 20 21 22 24 24 24 23 24 25 26 27 27 27 28 29 29 29 28 28
9 9 9 9 9 9 10 10 10 11 11 12 12 12 13 14 15 15 15 16 17 18 19 19 19 20 20 21 22 23 23 23 24 25 26 26 26 27 28 29 29 28 27 26
10 10 10 9 9 9 9 9 10 9 10 11 13 13 14 14 15 15 15 16 16 17 18 19 19 19 20 21 21 22 22 22 23 24 24 25 26 27 27 27 28 27 27 26
10 11 11 10 10 11 11 10 10 11 12 12 13 14 15 15 15 16 16 16 16 16 17 18 19 19 19 20 20 20 20 22 23 23 23 23 25 25 26 26 26 26 25 24
12 12 12 12 12 12 12 12 13 13 14 14 14 15 16 16 15 17 17 17 17 17 17 18 18 18 18 19 20 20 20 22 22 22 22 23 23 24 24 24 24 23 23 23
13 13 13 14 13 13 14 14 14 13 14 14 15 15 17 18 17 18 18 18 17 17 18 18 18 18 17 18 19 18 20 20 21 21 21 22 22 22 22 22 22 22 22 22
14 14 15 16 15 16 16 15 15 15 15 15 17 17 18 19 19 19 18 18 17 17 18 18 19 19 18 18 18 19 19 20 20 20 21 21 21 20 20 20 20 20 21 21
15 15 16 17 18 18 18 17 17 17 17 17 18 19 19 20 20 19 19 19 18 19 19 20 20 20 19 19 19 19 19 20 19 19 19 19 19 19 19 19 19 19 20 21
17 17 17 17 18 19 20 19 19 19 20 19 19 20 20 21 21 20 19 19 19 20 20 21 21 21 20 20 19 19 19 19 18 19 18 18 19 19 19 18 18 19 20 20
19 19 18 18 19 20 21 21 21 20 21 21 21 21 21 22 21 21 21 20 20 21 21 21 22 22 21 20 20 19 18 18 18 18 17 18 18 18 18 18 18 19 19 19
20 19 19 20 20 21 22 21 21 21 21 22 22 23 24 22 22 21 21 21 20 21 21 22 22 22 20 19 19 19 18 18 18 18 17 18 17 17 18 18 19 19 18 19
20 20 20 20 20 21 22 21 20 21 22 22 22 22 23 22 22 21 21 20 21 21 21 21 21 21 20 19 19 18 19 19 18 18 18 18 18 18 18 19 19 19 18 18
20 21 21 21 21 21 21 20 20 20 21 21 21 22 22 22 22 21 21 21 21 20 20 20 20 19 19 18 19 18 18 17 17 17 17 17 18 18 18 18 19 19 18 18
21 21 22 22 21 21 21 21 20 20 20 20 20 21 22 22 21 21 21 21 20 20 19 18 18 17 18 18 18 18 18 17 16 17 17 17 18 18 18 18 18 18 18 18
22 21 22 22 21 22 22 21 20 19 20 20 19 19 20 20 20 20 20 20 20 19 19 18 18 18 17 17 17 17 16 16 16 16 16 17 16 16 17 17 18 18 18 18
22 22 22 21 21 21 22 21 19 19 19 19 19 19 18 18 18 18 19 19 19 19 19 18 18 18 17 17 16 16 16 15 15 15 15 16 16 16 16 16 17 17 17 17
22 23 22 21 21 22 22 20 19 19 19 18 18 18 18 18 19 18 19 19 19 19 19 18 17 17 16 16 15 15 14 14 15 14 14 14 15 14 14 14 14 15 16 16
22 23 23 22 22 22 21 19 19 18 18 18 18 18 18 18 19 19 19 19 19 18 18 17 16 16 14 13 13 13 12 12 12 11 11 12 13 12 11 12 13 13 14 14
22 23 23 23 22 21 20 19 19 19 19 19 19 18 19 19 19 19 18 18 17 16 16 15 15 14 13 12 11 11 11 10 10 10 10 11 11 10 10 10 12 12 13 13
23 23 23 22 21 20 19 19 19 20 20 20 19 19 19 19 18 18 17 16 15 14 13 14 13 12 11 11 10 10 9 9 8 9 9 9 9 9 9 9 10 11 12 12
23 23 22 21 20 20 19 19 19 19 19 19 19 19 18 17 16 15 15 14 13 12 11 11 11 10 9 8 8 7 7 7 7 7 8 7 8 8 8 9 10 11 12 13
23 23 21 20 20 19 18 18 18 19 18 18 18 17 17 16 15 14 13 12 11 11 10 9 9 9 8 7 6 6 6 6 6 6 6 6 7 7 8 9 10 11 12 12

GEFSCGP_500_meanwind_198.txt.gz
Wind_Speed
7 5 3 4 5 6 7 10 11 12 11 12 14 15 15 15 15 16 16 16 18 19 19 20 20 21 21 22 23 25 26 26 26 27 26 27 28 28 28 28 28 29 29 30
7 6 5 5 7 7 9 11 11 11 11 13 15 15 15 16 17 17 16 16 19 20 20 22 22 21 22 22 24 25 25 26 26 26 26 27 27 27 28 28 28 29 30 29
5 5 6 7 8 8 10 11 11 11 11 13 14 14 14 14 16 19 18 18 17 19 20 21 22 22 23 23 24 25 25 26 26 26 26 27 27 28 28 29 29 30 29 28
7 6 8 9 10 10 11 10 10 10 11 12 12 15 14 15 16 19 19 19 18 19 19 21 22 23 23 23 24 24 25 25 25 26 27 27 27 28 28 29 29 29 28 29
7 9 9 10 11 11 10 9 9 10 10 12 12 14 15 17 18 20 20 19 18 20 21 21 21 22 22 23 24 25 24 23 24 25 26 26 26 27 28 28 28 28 28 28
7 9 10 10 10 11 10 10 10 10 10 14 13 13 16 18 20 22 24 20 18 20 20 20 20 22 23 23 23 23 22 23 24 25 25 25 26 27 28 28 27 27 27 28
9 10 11 11 11 11 11 12 12 12 13 15 13 14 20 20 21 24 23 20 20 18 19 20 22 24 24 23 23 23 24 24 24 24 24 25 25 26 26 27 27 27 27 27
10 11 10 11 11 11 11 11 11 13 14 15 14 16 20 20 23 23 22 22 21 21 20 20 21 22 23 23 23 24 23 23 23 24 24 24 25 25 26 26 26 27 26 25
12 11 12 12 11 11 11 11 12 14 15 15 14 17 20 21 22 24 23 21 20 21 21 21 22 22 23 23 23 24 23 24 24 24 24 24 25 25 26 25 25 25 25 24
14 14 13 13 12 12 12 13 13 13 15 16 15 16 21 23 24 25 24 22 21 21 21 20 21 22 23 24 24 24 24 24 24 25 24 24 25 25 24 24 23 24 24 23
15 14 13 13 13 12 13 14 15 16 16 16 18 18 21 24 24 24 24 24 23 23 24 22 23 23 24 24 24 24 24 24 24 24 24 24 24 24 23 23 23 23 23 23
15 16 14 13 13 13 15 15 16 17 17 17 19 19 21 24 23 23 23 24 24 23 22 23 24 24 24 24 24 23 24 24 24 24 24 23 23 23 23 22 22 22 22 21
15 16 16 15 14 15 16 15 16 18 20 20 19 19 21 23 22 22 23 24 24 23 23 23 23 24 24 25 25 24 24 24 24 24 24 23 23 21 21 21 21 21 21 21
16 16 16 16 16 16 17 18 18 19 20 21 21 20 22 22 24 24 24 23 22 22 23 23 23 23 23 24 24 23 23 24 24 24 23 22 21 20 20 20 21 21 21 21
17 18 17 17 17 17 17 18 19 19 20 22 22 22 22 22 24 25 24 24 23 22 23 24 23 23 23 24 24 24 23 23 24 23 21 20 19 19 19 19 20 20 20 19
20 20 19 18 19 19 19 19 20 21 21 22 22 22 22 23 24 24 24 25 24 24 24 24 24 23 24 24 24 24 23 23 22 21 19 20 19 19 19 19 20 20 20 19
20 21 20 20 19 20 21 21 21 22 23 23 23 23 23 24 25 24 24 24 24 25 24 24 23 23 23 24 24 23 22 22 20 20 19 18 18 18 18 18 19 19 18 17
21 22 22 21 20 20 22 22 21 21 22 23 23 23 23 24 24 24 25 24 24 25 24 23 23 22 23 22 22 22 21 21 19 18 17 17 17 17 17 17 17 17 17 17
23 24 23 22 22 23 23 23 21 22 23 24 24 24 23 23 23 23 23 23 24 23 22 22 23 22 22 22 22 21 20 19 18 17 17 17 16 16 17 16 15 16 16 16
24 24 24 24 24 24 25 23 24 25 25 25 24 25 25 24 23 23 23 22 22 22 22 22 22 22 22 21 21 21 20 19 18 17 16 16 15 15 15 15 14 15 16 16
24 24 25 24 24 25 25 25 24 25 25 25 25 26 26 25 24 24 23 22 22 22 22 22 21 22 22 21 21 20 19 18 17 16 15 14 14 14 14 14 14 14 15 15
25 25 25 24 24 25 25 25 25 25 25 25 25 25 25 25 24 23 22 22 21 22 21 21 21 21 20 20 20 19 17 17 15 14 14 13 13 13 13 13 13 14 13 13
25 26 26 25 25 25 26 25 25 25 24 24 23 23 23 23 23 22 22 22 22 21 20 20 20 19 19 18 17 17 16 14 14 12 12 12 12 12 11 11 12 12 13 13
25 26 26 26 25 25 25 24 24 23 23 22 22 22 22 22 22 22 22 21 20 19 19 19 18 17 17 16 15 14 14 13 12 11 11 11 10 10 9 9 10 11 12 13
26 25 25 26 26 25 23 23 23 22 21 20 20 20 21 22 22 21 21 20 19 18 18 17 16 15 15 14 13 13 13 12 10 9 9 9 8 8 8 8 9 10 11 12
26 25 25 26 25 24 23 22 21 21 20 20 20 20 21 21 21 20 19 17 17 17 15 15 14 13 12 12 12 11 11 9 8 8 8 7 7 6 7 8 9 10 11 13

GEFSCGP_500_meanwind_204.txt.gz
Wind_Speed
4 3 2 2 1 2 4 6 7 8 8 11 13 13 13 13 13 13 15 16 15 16 16 16 16 17 18 19 20 20 20 20 21 22 22 22 22 23 23 24 25 26 27 26
4 4 3 2 2 4 6 8 9 9 9 11 12 12 11 12 14 15 16 16 16 17 17 17 17 18 19 20 20 21 21 21 22 23 23 23 23 23 22 24 25 27 27 26
3 5 5 4 4 4 6 7 9 11 11 12 13 12 12 13 14 16 17 17 17 18 18 19 20 20 20 21 20 21 21 22 22 22 23 24 23 23 23 24 25 26 25 25
4 5 6 6 5 6 7 8 10 10 11 12 13 14 14 14 15 16 17 18 18 18 19 20 20 20 20 20 19 20 21 21 22 22 23 23 23 23 24 25 26 26 26 26
5 6 6 6 6 7 8 9 11 11 12 13 13 14 14 14 15 16 17 18 19 19 20 20 21 20 20 20 19 20 21 22 22 22 22 22 23 24 24 25 25 26 26 26
6 7 7 7 8 10 10 11 12 12 13 13 13 15 14 14 15 16 17 19 20 20 20 21 21 22 21 20 20 21 22 23 23 23 23 23 23 23 24 24 25 26 25 25
7 7 8 9 10 10 11 12 13 13 13 13 13 14 15 16 16 17 17 19 20 20 20 21 23 22 21 21 21 21 21 22 23 23 24 23 22 22 23 24 24 25 24 22
9 9 10 12 12 12 12 12 13 14 14 14 15 16 16 16 17 17 17 18 19 21 21 21 23 22 21 21 21 20 21 22 22 23 23 23 22 22 23 23 24 23 22 22
12 11 12 13 13 14 14 14 14 15 15 15 17 18 17 16 17 18 18 19 19 21 21 21 22 22 20 19 20 20 21 23 23 23 22 22 22 23 23 23 23 22 21 21
13 12 12 13 13 13 14 14 15 15 16 16 17 18 18 17 18 18 19 20 20 20 21 21 21 21 21 21 20 20 20 22 23 23 22 22 23 23 23 23 22 21 21 21
14 13 13 13 13 14 14 15 16 16 16 17 18 18 18 18 18 19 19 20 20 20 20 20 21 21 21 21 21 20 20 21 22 22 22 22 23 23 23 22 21 21 21 20
14 14 14 13 14 14 14 14 15 16 17 17 18 19 18 18 18 19 19 19 20 21 22 22 22 20 19 20 20 20 20 21 21 21 21 22 22 22 21 21 22 21 20 20
15 15 15 13 14 14 14 14 15 17 18 18 18 19 19 19 20 20 21 21 22 22 21 21 21 20 20 20 20 21 21 21 21 20 21 21 21 21 20 20 20 21 20 20
16 16 16 16 15 15 15 14 15 16 17 17 17 18 19 19 20 21 21 22 22 22 21 20 21 20 21 22 21 21 22 21 21 21 21 21 21 20 20 19 20 20 19 19
16 17 16 16 16 17 17 16 15 15 17 17 17 17 18 18 18 20 20 21 21 21 21 20 20 21 21 22 22 22 22 22 22 21 20 21 20 19 19 19 19 18 18 18
17 17 17 18 18 18 18 17 17 16 16 17 18 18 18 18 19 20 21 20 20 20 20 20 20 21 21 22 21 21 22 22 21 20 19 18 18 18 18 18 18 17 17 17
17 18 19 20 19 19 19 18 18 18 18 18 18 19 19 19 20 19 19 20 20 20 21 21 21 21 21 21 22 22 22 21 20 19 18 18 18 18 17 17 17 16 16 16
18 19 20 20 20 20 20 19 19 19 19 19 19 20 20 20 20 19 19 20 21 21 21 21 21 20 21 21 22 22 22 20 19 18 18 18 18 18 17 17 16 16 16 16
19 19 20 21 21 21 20 20 20 20 19 20 20 21 21 21 20 20 21 21 22 21 21 20 20 21 21 21 22 21 20 18 18 18 17 17 17 16 16 16 16 15 16 15
19 20 22 22 23 23 22 22 21 21 21 21 21 22 22 22 21 20 21 21 21 20 20 20 20 20 21 21 20 19 18 17 16 16 16 16 16 15 15 15 15 15 15 14
20 21 22 23 23 23 23 23 22 23 22 21 21 22 23 22 21 20 21 21 20 20 20 20 20 19 20 19 19 18 16 16 16 16 15 15 14 14 13 13 14 14 14 13
23 24 24 23 23 22 23 23 23 22 22 21 22 22 21 21 21 20 20 19 19 19 20 19 18 19 19 18 18 18 17 16 15 15 14 13 13 13 12 12 12 12 12 13
23 25 25 25 24 23 23 23 22 22 22 22 22 21 21 21 21 20 19 18 18 18 18 18 17 18 17 17 17 17 16 15 14 14 13 13 12 12 11 11 11 11 11 11
24 24 24 24 23 22 23 22 22 22 22 22 21 20 21 20 19 19 18 17 17 16 16 16 16 16 15 15 16 15 14 14 14 13 12 12 11 11 10 10 9 10 10 10
24 24 23 23 22 22 22 22 22 22 21 20 19 19 19 19 19 18 18 17 17 17 16 16 15 14 13 13 13 13 13 13 12 12 11 11 10 10 8 8 8 8 9 10
22 23 24 23 22 22 22 21 21 21 20 19 19 19 18 19 18 17 17 16 15 15 15 14 14 14 13 12 11 11 11 11 10 9 9 9 9 8 7 7 7 8 9 10

GEFSCGP_500_meanwind_210.txt.gz
Wind_Speed
1 2 3 4 4 5 7 9 10 10 11 12 12 12 12 13 14 14 15 16 16 17 18 19 20 20 21 22 22 23 21 20 18 19 20 22 22 22 23 23 24 24 25 26
2 2 3 4 5 6 7 8 10 11 12 13 13 13 13 14 15 15 16 17 17 18 18 19 20 21 21 22 24 23 21 20 20 21 21 22 23 23 24 24 25 25 26 27
2 3 4 5 6 7 7 9 10 11 12 13 14 14 14 14 16 17 18 18 18 19 20 21 22 23 23 23 23 22 20 21 22 23 23 23 24 23 24 25 25 25 25 26
4 4 5 5 6 7 6 7 8 9 11 12 13 14 14 15 16 18 19 20 20 20 21 22 23 23 24 24 23 21 21 22 22 22 23 23 24 24 24 24 25 26 26 26
6 6 6 7 7 7 7 7 8 9 10 12 13 14 14 15 17 18 19 20 21 21 21 22 23 23 23 23 22 22 23 24 23 23 23 23 24 23 24 24 25 26 26 26
8 9 9 9 9 9 9 10 10 11 12 13 13 15 15 16 17 18 19 20 21 21 21 22 22 22 22 23 23 24 24 24 23 23 23 23 24 24 24 25 25 25 25 25
9 10 10 10 11 11 11 12 12 13 14 14 15 16 16 17 18 18 19 20 21 21 21 22 21 22 22 23 24 24 24 24 23 24 24 24 24 24 25 25 25 25 25 24
9 10 11 11 12 12 13 13 14 15 16 16 16 17 18 19 19 19 19 21 21 21 21 21 21 22 22 23 24 24 24 25 24 24 24 24 25 25 25 25 25 25 24 23
11 11 12 12 13 14 15 16 16 17 17 17 17 17 17 18 18 18 19 21 22 22 22 21 21 21 22 23 23 23 23 25 25 25 24 25 25 24 24 24 24 24 23 23
12 12 12 13 14 15 15 16 16 17 18 18 17 17 17 18 18 18 19 20 21 21 21 21 21 22 23 23 23 23 23 22 23 23 24 24 24 24 23 23 24 23 22 22
13 13 12 14 15 15 16 17 17 18 18 18 18 17 18 19 20 19 19 20 21 21 21 21 22 23 22 22 23 23 22 22 22 22 21 22 23 23 23 23 23 22 21 21
13 14 14 15 15 15 16 17 17 18 18 17 17 17 17 18 19 19 20 21 20 20 21 22 23 22 22 22 22 23 23 22 22 21 21 22 22 22 23 23 23 22 22 22
14 15 16 16 16 16 16 17 17 18 18 17 17 17 18 19 20 20 21 21 21 21 21 22 22 22 22 22 22 23 22 22 22 22 22 22 23 22 22 22 22 22 22 22
16 16 17 17 17 18 17 17 18 18 18 18 18 18 18 19 19 20 20 21 20 20 21 21 20 21 22 22 22 22 22 22 22 22 22 22 22 22 22 22 22 21 21 21
17 17 17 18 18 19 18 17 17 18 18 18 18 18 18 19 19 20 20 21 21 21 21 21 21 21 21 21 22 22 22 22 22 22 22 22 22 21 21 21 21 21 21 20
18 18 18 18 18 18 18 18 18 19 18 18 19 19 19 20 20 20 21 21 21 21 22 20 20 21 22 22 22 21 21 21 22 22 21 21 21 21 21 21 21 21 20 19
18 19 19 19 18 18 18 19 19 20 19 19 20 20 20 20 21 21 22 22 23 22 22 21 21 21 21 21 21 21 21 21 21 21 21 21 21 21 21 20 20 20 20 19
19 19 20 20 20 20 20 20 20 20 20 20 20 21 21 22 22 23 23 24 23 22 22 21 22 22 21 21 21 21 21 20 20 21 20 20 20 20 20 20 20 20 19 19
20 21 22 22 22 22 21 21 21 21 21 21 21 21 23 23 23 23 23 23 22 22 22 22 22 21 21 22 21 21 20 19 20 20 20 19 20 20 20 21 20 20 19 19
20 22 23 23 24 24 23 22 22 22 22 22 23 23 23 23 23 23 23 23 23 23 23 23 22 22 22 22 21 20 19 19 20 19 19 19 19 20 20 20 20 19 19 19
22 23 23 24 24 24 24 24 23 23 24 24 24 24 24 24 24 24 23 23 24 24 24 23 22 22 22 21 21 20 19 18 19 18 18 18 19 19 20 20 19 19 18 17
23 24 24 25 25 25 25 24 24 24 24 24 25 24 24 24 24 24 23 23 24 24 23 22 21 22 21 20 19 18 17 16 16 16 17 18 19 19 19 18 18 18 17 15
24 24 25 25 25 25 24 24 24 24 24 24 24 24 23 24 24 24 24 24 24 23 22 22 21 21 20 19 19 17 16 15 15 16 17 17 17 18 17 17 16 16 15 14
23 24 25 25 25 25 25 24 24 24 24 24 25 24 24 25 25 24 23 23 22 22 22 22 22 21 20 19 18 17 16 16 16 17 17 15 16 16 16 16 15 14 13 13
24 24 25 25 25 25 25 24 24 24 24 24 24 24 25 25 24 24 23 22 21 21 21 22 21 20 19 18 17 16 16 16 16 15 14 14 14 14 14 13 13 12 12 13
24 25 25 26 26 26 25 25 24 24 23 23 23 23 23 24 24 23 22 21 20 19 20 20 19 18 18 17 16 16 15 15 14 14 13 13 13 13 12 12 12 12 13 13

GEFSCGP_500_meanwind_216.txt.gz
Wind_Speed
2 2 2 3 4 5 5 6 7 8 9 10 10 10 11 12 13 14 15 15 17 18 19 20 20 21 22 22 23 23 23 24 24 25 24 23 23 24 24 25 26 26 27 27
4 3 2 3 4 4 5 6 7 8 9 10 10 10 11 13 14 14 15 17 19 19 20 21 22 22 23 23 23 24 24 24 24 23 23 22 22 23 25 26 26 26 27 27
3 3 3 3 4 5 5 6 7 8 9 9 9 10 12 13 14 15 16 17 18 19 20 21 22 22 23 23 24 24 25 25 24 23 23 23 23 24 25 25 26 26 26 26
3 3 4 4 5 6 7 7 8 9 8 9 8 10 12 13 14 16 17 17 18 19 20 21 21 21 22 23 23 24 25 25 23 23 23 22 23 24 24 26 27 26 26 26
4 5 5 6 6 6 8 8 9 8 8 9 10 10 13 14 15 16 17 18 18 19 20 20 21 21 22 23 23 23 24 24 23 23 23 22 23 24 24 24 25 25 26 27
5 6 6 7 7 6 7 8 7 7 7 9 11 11 14 15 15 16 17 18 19 20 20 20 21 21 22 23 23 24 23 23 23 23 23 24 24 23 24 24 24 25 26 27
6 7 7 8 8 7 7 7 8 8 8 10 12 13 15 16 16 17 18 19 19 20 20 20 21 21 22 22 22 23 23 23 23 23 24 25 25 24 25 25 27 27 27 27
5 7 8 8 8 8 9 9 9 10 11 12 14 15 16 17 18 19 19 19 19 19 20 20 21 21 21 21 22 23 23 22 23 24 25 26 26 25 25 26 27 27 27 26
5 7 8 8 9 10 11 11 11 12 12 13 13 15 17 17 18 19 19 19 19 19 20 20 21 21 21 22 23 23 23 24 24 24 25 25 25 25 25 24 25 26 25 24
6 7 8 9 11 11 12 13 13 12 13 13 14 14 16 18 18 18 18 18 19 19 20 20 20 20 21 21 22 23 24 24 24 23 23 24 24 24 23 23 24 24 24 23
8 9 10 11 12 13 13 13 13 14 14 14 14 15 18 18 18 18 18 19 19 20 20 20 20 20 21 22 22 23 23 22 21 21 22 22 22 22 23 24 24 24 22 22
9 10 11 12 13 13 12 12 13 14 15 15 16 17 18 18 19 18 19 19 19 20 20 20 21 21 21 22 22 23 23 21 21 21 22 22 21 21 22 23 23 22 21 21
11 11 12 13 14 14 13 14 14 15 16 16 16 17 19 19 18 18 18 19 20 20 20 21 22 22 22 23 23 23 22 21 21 21 21 21 21 21 20 21 21 21 21 21
12 12 12 13 14 14 14 15 15 15 16 17 16 18 19 19 19 19 20 21 21 21 21 21 22 23 23 23 23 23 22 22 22 21 21 21 21 20 20 20 20 20 20 20
13 13 13 13 14 14 15 15 16 16 16 17 18 19 20 20 20 20 21 21 21 21 21 22 22 22 22 22 23 23 21 21 22 21 20 20 20 20 19 19 20 19 19 20
14 13 13 14 15 15 15 16 16 17 17 18 19 19 19 19 19 20 20 20 21 21 21 22 22 22 22 22 22 22 21 21 21 21 20 20 19 19 18 18 19 19 20 21
13 14 14 15 15 15 16 17 17 17 17 18 19 19 19 19 20 20 20 20 21 21 22 22 21 23 23 23 22 21 21 20 20 20 19 19 19 18 18 19 19 19 20 20
15 15 15 16 16 16 17 17 18 18 19 19 19 20 20 20 20 21 21 21 22 22 23 23 23 23 23 22 22 21 21 20 20 19 19 19 19 19 19 19 19 19 20 20
16 16 16 16 17 18 19 19 19 20 20 20 20 21 21 20 21 21 22 23 23 23 23 23 23 23 23 22 21 21 20 20 20 20 19 18 18 18 18 18 19 19 19 19
16 17 17 17 18 19 21 21 21 21 21 21 21 22 21 21 21 22 22 23 23 23 23 23 23 22 22 21 20 21 20 20 20 20 19 18 18 18 18 17 17 18 18 17
17 18 18 19 20 20 22 22 22 21 22 22 22 22 22 22 22 22 23 23 23 23 23 23 22 22 21 21 21 20 20 20 20 19 18 17 17 17 17 16 16 16 16 16
19 19 19 20 20 21 22 22 22 22 22 22 23 23 23 22 22 22 22 23 23 23 22 22 22 22 22 21 21 21 20 19 19 18 17 17 17 17 16 15 15 15 15 15
20 19 20 20 20 21 22 22 22 23 23 23 23 23 23 23 23 23 23 23 23 23 23 22 21 21 20 20 20 20 19 18 17 16 16 16 16 15 15 15 14 14 15 15
21 20 20 21 21 21 21 22 22 23 23 24 24 24 23 23 23 23 23 23 23 23 22 21 20 20 19 19 19 19 18 17 16 16 15 14 14 14 14 14 14 15 15 15
22 22 21 21 21 22 22 23 23 24 24 24 24 24 24 24 23 24 23 23 22 22 21 20 19 19 18 18 18 17 16 16 15 14 14 13 13 14 14 14 15 15 15 16
22 22 22 22 22 23 23 24 24 24 25 25 24 24 24 24 23 23 23 22 21 20 19 18 17 17 16 17 17 16 16 15 14 14 14 13 13 13 13 14 14 14 15 15

GEFSCGP_500_meanwind_222.txt.gz
Wind_Speed
4 3 3 2 4 5 6 8 6 7 9 9 11 12 13 13 13 14 16 17 17 18 19 19 20 20 21 22 23 23 24 25 25 26 26 27 27 27 27 28 27 28 28 28
5 5 4 3 4 6 6 7 6 7 10 11 11 13 14 12 14 15 17 18 19 20 20 21 20 21 21 22 23 24 25 26 26 27 27 28 28 28 28 28 27 27 28 28
5 5 4 4 5 6 5 5 6 9 11 12 12 13 14 14 15 16 18 19 20 21 21 22 22 23 24 24 24 25 25 26 27 27 27 27 28 28 28 29 29 29 29 28
3 5 5 5 7 6 5 7 7 9 11 11 11 13 14 15 16 17 18 18 20 21 22 23 24 24 24 24 25 25 26 26 26 26 27 27 27 27 28 28 28 28 29 28
3 5 5 6 8 8 7 8 9 10 10 10 11 14 14 15 17 18 17 18 20 22 23 23 23 24 24 24 24 24 25 25 25 25 26 26 27 27 27 27 27 27 27 27
5 5 5 6 7 8 9 9 8 8 8 11 12 14 15 15 17 18 19 19 21 23 24 24 24 24 24 24 24 24 25 25 24 25 25 26 26 26 26 26 26 27 26 26
6 6 7 7 8 9 9 9 9 9 10 10 11 13 15 17 18 19 21 21 22 24 25 25 25 25 25 25 25 24 24 24 24 24 24 25 26 26 26 26 25 26 25 25
4 5 9 10 9 11 9 9 12 12 12 12 13 14 16 17 18 20 22 22 23 24 24 25 25 25 25 25 25 24 24 24 24 24 24 25 25 25 25 25 25 25 25 25
6 7 9 12 12 12 10 9 10 12 11 11 13 15 17 18 20 21 23 23 23 24 24 24 25 25 24 24 23 24 24 24 24 25 25 24 24 25 25 24 24 24 24 25
10 11 10 12 12 11 10 11 11 12 13 13 11 14 19 20 22 23 24 24 24 24 24 24 23 23 23 23 23 24 24 24 25 25 25 25 24 24 24 23 23 22 23 23
12 13 11 11 11 10 11 11 12 12 12 14 14 16 20 21 22 24 24 24 24 24 24 23 22 22 22 22 23 24 24 25 25 26 25 24 24 23 22 23 23 22 23 23
13 13 11 10 11 10 11 11 12 13 13 14 15 16 19 20 22 22 23 23 23 23 23 23 23 23 23 23 23 24 24 25 26 25 24 23 22 22 22 23 22 23 23 23
12 12 11 10 9 10 11 12 12 13 15 15 16 17 19 20 21 22 23 22 23 23 24 23 24 23 24 24 23 24 24 25 24 24 23 22 21 22 22 23 22 22 22 22
12 12 12 11 10 12 12 13 14 14 15 17 17 17 19 20 21 21 21 22 23 23 23 24 23 24 24 23 23 23 24 24 23 22 22 21 21 22 23 22 22 22 22 23
12 12 13 11 11 12 13 14 15 16 16 18 18 19 19 21 22 22 22 23 23 23 22 23 24 24 24 24 24 24 25 24 23 22 21 21 22 22 22 22 22 22 22 22
13 13 12 11 12 13 14 15 15 16 16 17 18 19 20 21 22 23 23 23 23 23 23 24 25 25 24 23 24 24 23 23 23 22 22 22 22 21 21 21 21 22 22 22
15 14 13 12 12 14 15 16 16 16 17 18 19 20 21 22 22 22 23 24 24 24 24 24 24 23 23 23 23 23 23 22 22 22 22 22 21 21 22 22 22 22 22 22
15 15 15 14 15 16 16 16 17 18 18 19 20 21 21 23 23 23 23 23 23 24 24 24 23 23 23 23 23 22 21 21 21 21 21 21 21 22 22 22 22 22 22 22
16 17 16 15 16 16 16 18 19 19 19 20 21 22 23 24 23 23 23 23 23 24 24 25 24 24 23 23 23 22 21 21 21 21 21 21 22 22 22 22 22 22 21 21
18 17 17 17 17 17 17 19 21 21 22 22 23 23 24 24 24 23 24 23 23 23 24 24 24 23 22 22 22 21 21 21 21 21 21 21 21 22 21 21 20 20 20 20
19 19 19 18 18 19 19 21 22 22 23 23 23 23 24 25 25 25 24 23 23 23 24 24 23 22 22 21 21 21 21 21 21 20 20 20 20 20 20 20 19 19 19 19
19 20 20 20 19 20 20 21 22 22 23 23 24 24 25 25 25 24 24 23 23 23 24 24 23 22 21 21 20 20 21 20 19 19 19 19 19 18 18 19 19 18 18 18
20 20 20 21 20 21 22 23 23 23 23 24 25 24 25 25 25 24 23 23 23 23 22 22 22 21 21 20 20 20 20 19 18 19 19 18 19 18 18 18 18 17 17 18
21 21 22 21 21 22 23 23 23 24 25 25 25 25 25 25 24 24 23 23 23 22 22 22 21 21 21 20 19 19 19 19 18 18 18 18 18 17 17 17 16 17 17 17
22 22 23 24 24 23 23 24 25 25 26 26 26 25 24 24 24 24 24 23 23 23 22 22 21 21 20 19 18 18 18 18 18 18 17 17 18 17 16 16 16 16 16 16
23 23 24 24 23 24 25 25 25 26 26 26 26 26 24 24 24 24 25 24 23 23 23 22 21 21 20 18 18 18 18 18 18 17 17 17 17 15 15 15 15 15 15 15

GEFSCGP_500_meanwind_228.txt.gz
Wind_Speed
4 2 1 1 2 2 4 4 5 4 7 8 9 10 11 12 13 14 13 13 14 15 15 16 17 18 19 20 19 19 19 20 21 23 24 25 25 25 24 24 24 24 24 25
3 2 1 1 1 3 4 5 6 6 6 8 10 11 13 14 14 14 13 14 14 15 16 17 17 18 19 20 19 20 19 21 22 23 24 25 25 25 25 24 24 25 25 25
2 2 1 0 2 4 5 7 7 8 8 8 9 10 11 13 14 13 14 15 15 15 15 16 18 18 19 19 20 21 20 21 23 24 24 24 25 25 25 25 25 25 25 26
2 2 2 2 2 4 4 6 7 8 10 9 10 11 12 14 14 14 14 14 15 14 16 18 19 19 20 20 21 21 21 21 21 22 22 23 24 24 24 25 25 25 26 26
1 2 2 3 4 5 6 7 7 8 9 9 10 12 13 14 15 15 13 14 15 15 17 18 19 20 21 21 22 21 21 21 21 21 22 24 24 23 24 24 25 25 25 25
1 3 3 4 6 7 8 8 8 8 9 10 11 13 13 13 15 15 15 16 17 17 18 18 19 20 21 21 21 21 22 22 22 22 23 23 23 23 23 24 23 24 24 25
3 4 4 6 7 9 10 10 10 10 10 10 12 13 14 14 15 15 16 17 17 18 18 18 19 20 20 20 21 21 22 22 23 23 23 23 23 23 23 23 22 23 23 23
5 5 6 8 9 9 10 10 11 11 12 12 13 14 14 14 15 16 17 18 19 20 19 18 19 19 20 20 21 20 22 23 23 23 23 23 23 23 23 22 22 22 22 23
7 6 7 9 10 10 10 11 11 12 13 13 14 14 15 15 16 17 18 19 20 19 19 19 19 18 20 20 21 22 22 22 22 22 23 23 22 22 21 21 22 22 22 22
9 8 8 10 11 11 11 12 12 13 14 16 15 15 16 16 17 18 19 20 20 20 20 19 19 20 20 21 22 23 22 22 22 22 22 21 21 21 21 21 22 22 22 22
10 10 9 10 11 11 11 12 12 13 14 15 15 14 15 17 18 18 19 20 20 20 20 20 21 21 21 22 23 23 23 22 22 21 21 21 20 20 21 22 22 21 21 21
11 11 11 11 11 12 11 12 12 13 15 15 15 16 15 16 18 18 20 20 20 20 21 21 21 21 21 22 22 22 22 22 21 21 20 20 20 21 21 21 20 20 20 21
11 11 11 10 10 11 12 12 13 13 14 15 15 16 16 17 18 19 20 21 21 21 22 22 21 21 21 22 23 22 22 21 20 20 19 19 20 20 20 20 20 20 20 21
11 11 11 11 10 11 12 11 12 13 14 15 15 16 17 17 18 19 20 21 21 21 22 22 21 20 21 21 21 20 20 19 19 19 19 19 19 19 20 20 20 21 21 21
12 11 11 11 11 12 13 13 12 13 14 15 16 16 17 17 17 18 19 20 21 21 22 22 21 21 21 21 21 20 20 19 20 19 19 19 19 19 20 21 21 21 21 21
13 12 12 11 12 13 14 14 14 13 14 15 16 16 16 17 17 18 19 20 21 22 22 21 21 21 21 21 20 20 20 20 19 19 19 19 19 20 20 21 22 22 22 22
15 14 13 13 12 13 14 14 14 14 15 16 17 17 18 18 18 19 20 20 20 21 21 21 21 20 21 20 20 20 20 20 19 19 19 19 20 20 21 22 22 22 21 21
15 15 15 15 14 15 15 15 14 14 15 16 17 17 18 19 20 21 21 20 20 20 21 21 21 20 20 19 19 20 20 20 20 20 20 20 20 21 21 21 21 20 20 21
15 15 15 16 16 16 15 15 15 15 15 17 18 19 19 20 21 21 21 21 21 21 21 21 21 21 20 19 20 20 20 20 21 20 20 20 20 20 20 20 20 20 20 21
16 15 16 17 18 18 16 16 16 16 17 18 19 20 21 21 22 22 22 21 21 21 21 21 21 21 20 20 20 20 20 20 19 19 19 19 20 20 20 20 20 20 20 20
16 17 17 18 20 19 18 17 17 17 18 19 20 20 21 22 22 23 22 22 21 21 21 21 21 21 20 20 20 19 19 18 18 18 19 19 19 20 20 19 19 19 18 18
18 18 18 19 20 19 19 18 18 18 19 19 20 21 21 22 22 21 21 22 21 21 21 21 20 20 19 19 19 18 19 18 18 18 18 18 19 19 19 19 19 18 17 18
19 19 19 19 19 19 19 19 19 20 20 20 21 21 21 22 21 21 21 21 21 21 21 20 20 19 18 18 18 19 19 19 18 18 18 18 18 18 18 18 17 17 17 17
19 19 20 20 20 20 20 20 20 21 21 21 21 21 22 22 21 21 21 21 20 20 20 20 19 18 18 18 18 19 19 18 17 17 17 17 18 17 17 16 16 16 17 17
20 20 21 21 20 21 21 21 21 22 22 22 22 23 23 23 23 22 22 21 20 19 19 19 19 19 19 19 18 18 17 16 16 16 16 16 16 16 15 15 15 16 17 17
22 22 22 22 21 22 22 22 21 22 22 23 23 23 24 24 23 22 22 21 20 20 20 20 20 19 19 18 17 17 17 16 16 16 15 15 16 15 14 13 14 15 15 16

GEFSCGP_500_meanwind_234.txt.gz
Wind_Speed
4 4 4 4 4 3 4 4 4 4 6 7 8 9 10 11 12 13 14 15 14 15 15 15 16 16 16 17 18 19 19 18 18 19 20 21 22 23 23 23 24 25 25 26
4 4 4 4 3 3 4 5 5 6 8 8 8 9 10 11 13 14 15 14 14 14 15 15 16 17 17 18 18 18 18 18 18 19 20 21 22 22 22 23 23 23 24 24
2 3 4 4 4 4 5 7 7 8 9 9 10 9 10 12 14 14 13 13 14 15 15 15 15 17 17 17 17 18 18 18 19 20 20 20 20 21 22 22 22 22 22 23
3 3 3 4 4 5 6 7 8 9 9 10 11 12 11 12 13 13 13 13 14 14 14 15 16 17 17 17 18 19 20 19 20 20 20 19 19 20 21 22 22 22 23 23
3 3 4 5 5 6 7 8 9 9 10 11 12 14 13 13 12 12 12 12 13 15 16 17 18 18 18 19 20 21 21 20 20 19 19 19 20 21 22 22 22 22 23 23
4 4 5 5 6 8 8 9 10 10 10 11 13 14 13 13 13 13 13 13 14 15 17 19 20 20 20 20 22 22 22 21 20 20 20 20 20 21 22 22 22 22 23 23
5 6 6 6 7 8 9 11 11 11 11 12 13 13 14 13 13 14 14 14 16 17 19 19 20 21 21 22 22 22 22 21 21 21 21 20 20 21 22 22 22 22 23 23
6 7 7 7 9 10 11 12 12 13 14 13 12 13 14 14 14 15 15 15 16 17 18 19 19 20 21 22 22 22 21 21 21 20 20 21 22 22 23 22 22 22 22 23
7 7 8 9 11 12 12 12 13 14 14 14 13 13 13 14 14 15 16 16 18 18 18 19 19 20 21 21 21 20 20 20 20 20 21 21 21 21 21 21 21 21 21 22
9 9 10 11 12 12 13 13 14 14 15 15 14 14 13 14 15 15 16 17 17 18 18 19 19 20 20 20 19 18 19 19 19 19 20 21 22 22 22 21 21 21 22 22
11 12 11 12 13 13 13 14 14 15 15 16 16 15 14 14 15 16 17 17 17 18 18 19 19 20 19 18 17 18 19 20 20 20 20 21 21 21 21 21 21 21 22 22
12 13 12 13 13 14 14 15 15 15 15 16 16 15 15 16 17 17 18 18 18 18 19 19 20 20 18 18 18 18 19 19 20 20 20 20 20 21 21 20 21 21 21 21
13 13 13 13 14 15 15 15 15 15 15 15 16 16 16 17 19 18 18 18 17 18 19 20 20 19 18 17 17 18 19 20 20 20 21 20 20 20 20 20 20 21 20 20
14 14 14 14 15 15 15 15 16 16 16 16 16 17 17 18 18 18 17 18 17 18 19 19 20 19 18 17 17 18 19 20 20 20 20 19 19 19 19 20 21 20 20 21
14 15 14 15 15 15 15 15 15 16 16 17 17 17 17 18 18 18 18 18 18 18 18 20 20 19 18 17 18 19 20 20 19 19 18 19 19 18 19 20 20 20 20 21
16 16 16 16 16 16 15 15 15 16 17 17 17 17 17 18 18 18 18 19 19 18 19 19 19 19 18 18 19 19 19 19 19 19 19 19 18 18 19 19 19 20 21 22
16 17 18 17 17 17 17 16 16 17 17 17 17 17 17 17 17 18 19 19 19 19 19 19 19 19 19 19 19 19 19 20 20 19 19 19 19 19 20 20 20 21 21 22
18 18 18 18 18 18 18 17 17 17 17 17 18 18 18 18 19 19 20 20 20 19 19 19 19 20 19 19 19 19 19 20 20 20 19 19 20 20 20 20 21 21 21 21
19 20 20 20 20 19 19 18 18 17 17 18 19 19 19 19 19 19 20 20 20 19 19 19 20 20 19 19 19 19 20 20 20 20 19 19 19 20 20 20 20 20 20 20
20 21 22 21 21 21 19 19 19 19 18 18 18 19 19 19 19 19 19 19 19 19 19 19 20 20 19 19 19 19 20 21 20 20 19 19 19 19 18 18 19 19 19 19
22 22 22 22 22 22 21 20 20 20 20 19 19 19 19 19 19 20 20 19 19 18 19 19 19 20 20 20 20 20 20 20 19 19 19 19 18 18 18 18 17 18 19 18
23 22 22 22 22 21 21 21 21 21 21 20 20 20 20 20 20 19 19 19 19 18 19 19 20 20 20 20 20 19 19 19 19 19 18 18 18 17 17 17 17 18 18 17
24 23 22 22 22 22 22 22 22 22 22 21 21 21 21 21 20 20 19 19 19 19 19 19 19 19 20 20 20 19 19 18 17 17 17 17 17 16 16 17 17 18 17 17
25 24 24 23 23 23 24 23 22 22 22 22 22 22 22 21 20 20 20 19 19 19 19 19 19 19 20 20 19 19 18 17 16 16 17 17 17 16 16 17 17 17 16 16
26 26 25 25 24 23 23 24 23 23 23 24 23 23 23 22 21 21 20 20 20 20 20 19 19 19 19 19 19 19 18 16 16 15 16 16 17 17 16 16 17 16 15 15
26 26 26 25 25 25 24 24 24 24 23 23 23 23 23 23 21 21 21 21 21 21 21 20 19 19 19 20 19 18 17 16 15 15 16 16 16 16 16 17 16 15 14 14

GEFSCGP_500_meanwind_240.txt.gz
Wind_Speed
5 6 5 6 6 7 8 8 9 10 10 10 11 12 12 13 14 14 14 14 15 15 16 16 16 16 16 17 17 18 18 19 19 19 19 20 19 20 20 20 21 22 22 22
5 6 6 7 7 7 8 8 8 8 9 10 11 12 13 14 14 14 14 14 14 14 15 15 15 15 15 16 17 17 17 17 19 19 19 19 19 19 19 19 20 21 21 21
6 7 7 7 7 7 7 7 8 8 9 10 10 12 13 14 13 13 13 14 13 13 14 14 14 14 15 16 17 17 17 18 19 19 19 19 19 19 19 20 20 19 20 21
7 7 7 7 6 6 6 7 7 8 9 10 10 11 12 13 13 13 13 13 13 13 14 13 13 14 15 16 16 16 17 18 18 17 18 19 18 18 19 20 19 19 20 21
6 6 6 6 6 6 6 7 7 8 8 10 10 11 12 12 12 13 13 13 13 13 13 13 13 14 15 16 16 16 17 18 17 17 17 18 18 19 19 19 20 20 21 21
6 6 6 6 6 6 7 7 7 8 9 10 11 10 12 12 12 12 13 13 13 13 13 14 14 14 15 16 16 17 18 18 17 17 17 18 18 18 19 19 20 20 21 22
6 7 7 7 7 7 6 7 8 8 9 10 12 11 11 13 12 12 12 12 12 13 14 14 15 16 16 17 17 17 17 18 17 17 17 17 18 19 19 19 20 20 21 22
6 8 8 7 7 7 7 7 8 9 10 11 13 13 12 13 12 12 12 12 13 14 14 15 16 17 17 17 16 16 17 18 17 17 17 17 18 18 18 19 20 20 20 21
7 9 9 8 8 8 8 8 10 10 11 11 12 13 13 13 13 13 12 13 13 14 15 15 16 17 17 17 16 16 17 17 17 17 17 17 18 19 19 20 20 20 20 20
8 9 10 9 9 9 10 10 11 10 11 12 13 14 14 13 13 13 13 14 15 15 16 16 17 18 17 16 17 17 17 17 18 18 19 19 19 19 19 20 19 19 19 19
10 11 12 11 11 11 11 11 11 12 12 12 13 14 14 14 14 14 14 15 15 16 17 18 18 18 17 17 17 18 17 18 19 19 20 20 19 19 20 19 19 19 19 19
11 12 13 13 12 12 12 12 12 12 13 13 13 14 13 14 14 14 14 15 15 16 17 18 18 17 17 17 17 17 17 18 19 19 19 19 19 19 19 19 19 19 20 20
13 13 13 13 13 13 13 12 12 12 13 13 13 14 13 14 15 15 15 15 16 18 18 18 18 17 17 18 18 18 18 17 18 18 19 19 18 19 19 19 19 19 19 20
13 13 13 13 13 14 14 14 13 13 13 13 13 13 14 14 14 15 16 16 17 18 18 18 17 16 17 17 17 17 17 18 18 18 18 19 18 19 19 19 19 19 19 19
14 14 14 14 14 14 14 14 13 13 13 13 14 14 14 14 15 15 16 16 17 17 17 17 17 16 16 16 16 16 17 18 18 18 18 18 18 19 19 19 18 19 19 19
15 15 15 15 15 15 15 15 15 15 14 14 14 14 14 14 15 15 16 16 16 16 17 17 17 16 16 16 16 16 17 17 17 18 18 18 17 18 18 18 18 18 19 19
17 17 16 16 15 15 16 14 14 15 15 15 15 15 14 15 15 16 16 16 16 16 16 17 16 16 17 16 16 16 17 17 17 18 18 17 17 17 18 18 18 18 18 17
18 18 18 17 17 17 17 16 15 16 16 15 15 15 15 16 16 16 16 16 16 16 16 16 16 16 16 16 16 16 17 17 17 17 17 17 17 18 18 17 17 17 17 17
20 19 19 19 19 19 19 17 17 16 16 16 16 17 16 16 16 16 16 16 16 16 17 17 16 16 16 16 16 16 17 17 17 17 17 17 18 18 18 18 18 17 17 16
21 20 20 20 20 20 19 19 18 17 17 17 17 17 17 16 16 17 17 16 16 16 17 17 16 16 16 16 17 17 17 17 17 17 17 17 17 17 17 17 17 16 15 14
21 21 21 21 21 21 21 20 19 18 19 18 18 18 18 18 18 18 17 17 17 17 17 17 16 16 16 17 17 17 17 17 17 17 17 17 17 17 16 16 15 15 15 14
22 22 21 21 21 21 21 21 20 20 20 19 19 19 19 19 19 18 18 18 18 17 17 17 16 16 16 17 17 17 17 18 18 17 17 16 16 15 15 15 15 15 15 15
23 23 22 22 22 22 21 21 21 21 21 21 21 20 19 19 19 19 19 19 18 17 17 17 17 17 17 17 17 18 18 18 17 17 16 15 15 14 15 15 15 15 15 15
24 23 22 22 22 22 22 22 22 22 22 22 22 21 20 20 19 19 19 19 18 18 17 17 18 18 18 18 18 18 18 17 17 16 15 14 14 14 15 15 16 16 16 16
24 24 23 23 23 23 23 23 23 23 22 22 21 21 21 20 20 20 19 18 18 18 18 18 18 18 17 17 18 17 17 17 16 15 15 14 14 15 15 16 17 16 16 16
25 24 23 23 24 24 24 23 22 21 22 22 21 21 20 20 20 20 20 20 19 19 19 19 19 18 18 18 18 17 17 16 15 15 14 14 14 15 16 16 17 16 16 15

GEFSCGP_500_meanwind_246.txt.gz
Wind_Speed
6 7 6 6 9 10 9 10 12 10 12 15 14 14 15 15 17 16 17 18 17 17 17 16 16 16 16 17 18 18 20 21 20 20 20 20 19 19 20 21 20 21 21 21
8 8 7 6 8 9 8 8 9 10 11 13 14 14 14 14 15 17 18 17 17 17 17 17 17 16 17 17 18 19 20 19 19 19 19 19 19 20 20 19 20 21 21 22
9 8 8 9 10 9 8 8 9 10 11 12 13 14 15 14 15 16 16 16 17 17 17 17 17 17 17 18 19 19 19 18 18 19 20 19 18 19 20 19 19 20 21 22
8 8 8 9 10 9 9 9 9 10 12 11 12 14 15 15 15 15 16 16 16 16 16 16 16 16 17 18 19 20 18 18 19 19 19 18 19 19 19 18 19 20 20 20
7 8 8 9 10 10 9 9 10 11 12 12 12 12 12 14 16 16 16 16 17 16 16 16 16 16 17 18 19 18 17 18 18 18 18 19 19 20 19 18 19 19 18 19
6 7 8 9 10 11 10 9 10 10 11 13 11 11 11 14 16 16 16 16 17 17 17 16 16 16 17 17 17 17 17 18 18 18 18 19 19 19 18 18 19 18 19 19
5 8 8 9 10 10 9 9 10 10 9 12 11 11 13 15 15 14 14 15 16 17 16 15 15 16 16 17 17 17 17 18 19 18 18 18 19 19 19 18 19 19 19 19
8 9 9 10 10 10 9 9 11 12 11 12 13 13 16 14 14 15 16 16 16 16 15 16 16 16 17 17 17 16 16 18 18 18 18 18 19 20 19 19 19 19 19 19
10 9 9 9 9 10 10 10 10 13 12 12 12 14 17 16 16 16 16 17 17 17 17 16 16 17 17 17 17 17 17 17 18 19 20 19 19 19 18 19 18 18 18 18
12 12 9 8 9 10 12 12 12 12 12 12 11 12 15 16 17 17 18 17 17 17 17 17 17 17 17 18 18 18 18 19 20 19 20 19 19 19 19 18 18 18 18 18
13 12 10 10 10 10 12 12 12 13 12 12 12 13 17 16 17 18 18 18 18 17 17 17 17 17 17 18 18 18 18 19 20 20 19 19 20 20 19 19 19 19 19 19
14 14 13 12 11 10 12 12 13 14 13 12 13 16 17 17 17 18 18 18 18 17 17 17 17 17 18 18 18 18 18 19 19 20 19 20 20 20 20 20 19 19 19 19
15 15 14 13 12 12 13 14 13 13 14 14 14 17 19 19 19 18 18 18 18 18 18 17 18 18 18 18 18 18 19 19 19 20 20 20 20 20 20 20 19 19 19 20
16 15 15 15 14 14 15 14 15 15 15 15 15 17 19 19 19 18 18 18 19 18 18 18 18 18 18 18 19 19 19 20 20 21 20 20 20 20 21 20 19 19 20 20
17 17 16 15 15 16 16 16 16 16 17 17 16 18 19 19 19 19 18 18 19 18 18 18 18 18 18 19 19 19 19 20 20 21 20 20 20 20 20 20 19 19 20 20
18 18 17 16 16 17 17 17 18 17 17 17 17 19 19 20 19 18 18 18 18 19 19 19 19 18 18 19 19 18 19 20 20 20 20 20 20 20 20 19 19 19 19 19
19 19 19 18 17 18 18 17 17 17 17 18 19 20 20 21 20 19 19 18 19 19 19 20 19 19 19 19 19 19 20 20 20 21 20 20 20 19 19 19 18 18 19 19
21 21 20 20 19 19 18 18 18 18 18 18 20 20 21 21 20 20 20 20 20 20 19 19 20 19 19 20 20 20 21 20 21 21 20 20 19 19 19 19 18 18 18 19
21 21 21 20 20 20 19 19 19 19 19 20 20 21 21 21 20 20 20 20 20 20 19 20 20 20 20 20 21 21 21 21 21 20 20 20 20 19 18 18 18 18 19 20
20 20 20 20 20 20 20 20 20 20 21 21 21 22 21 21 21 21 20 20 20 20 20 20 21 21 21 21 21 21 20 20 20 20 19 19 19 18 18 18 18 19 19 20
22 21 21 21 20 20 22 21 21 21 22 22 23 22 22 23 22 21 22 22 21 21 21 20 20 21 21 21 21 20 20 20 20 20 19 19 19 18 18 18 19 19 19 20
24 23 21 21 21 22 23 22 22 22 22 22 23 22 23 24 23 22 21 22 23 23 22 21 21 20 21 21 21 20 20 20 20 20 19 19 18 18 18 19 19 20 20 20
24 22 22 23 23 24 24 23 23 22 22 22 23 23 23 23 23 22 22 22 23 22 21 21 21 21 20 21 21 21 21 20 20 20 19 19 19 19 19 19 20 20 20 19
23 23 22 24 24 24 25 25 25 24 24 23 23 23 23 23 23 23 23 23 23 23 22 22 22 21 21 21 21 21 21 21 20 19 19 19 18 19 19 19 20 19 19 19
25 24 24 25 25 25 26 26 27 26 26 25 25 24 24 23 24 24 24 23 23 23 23 22 22 22 22 21 21 21 20 20 20 19 19 18 19 19 20 20 20 19 19 19
26 26 26 27 26 26 26 26 26 25 26 26 26 25 25 25 25 25 24 24 24 24 23 23 23 23 22 22 22 21 21 20 20 20 20 20 20 20 20 20 20 19 18 18

GEFSCGP_500_meanwind_252.txt.gz
Wind_Speed
10 10 10 9 9 8 7 8 9 8 9 9 9 10 10 11 13 13 14 13 12 12 14 13 13 14 15 15 15 15 15 15 16 17 18 17 16 16 16 16 15 14 14 15
9 10 10 10 10 9 7 7 8 8 9 10 10 11 10 12 13 12 13 13 12 12 13 14 13 14 15 15 16 16 16 15 15 15 16 16 15 15 16 15 14 13 13 14
9 9 9 9 8 8 7 7 8 9 9 10 12 10 9 9 10 11 11 11 11 12 13 14 14 14 15 15 15 15 16 17 16 16 16 16 16 15 15 14 14 13 13 14
8 7 7 7 7 7 7 7 9 10 10 11 10 11 9 9 8 8 9 10 11 12 13 13 13 14 14 15 15 15 15 15 16 16 16 16 16 16 15 14 13 13 13 14
8 7 7 7 7 8 8 8 9 10 11 11 10 10 8 8 7 8 9 11 12 12 13 13 13 14 14 14 15 14 15 15 15 15 16 15 15 14 14 13 13 13 14 14
7 6 6 6 7 8 8 8 10 11 11 10 8 9 8 8 8 9 11 12 12 12 13 13 13 13 14 13 13 13 14 14 14 15 15 14 15 14 14 13 13 13 13 14
7 7 8 7 8 9 10 10 10 11 10 9 8 9 8 8 9 10 11 12 13 12 13 13 13 13 13 12 12 13 14 15 15 15 15 15 14 14 14 13 13 14 14 13
8 9 10 10 9 8 10 10 10 11 11 10 10 10 9 9 10 10 11 12 13 13 12 12 12 13 12 12 12 14 14 15 16 16 16 15 14 14 13 13 13 13 13 13
9 9 9 10 9 10 11 10 11 12 12 11 10 10 11 10 11 11 11 12 13 13 12 12 12 12 11 12 13 14 14 16 16 16 16 16 14 13 13 13 14 14 14 14
10 10 10 10 10 10 12 12 11 12 13 12 12 13 12 11 12 12 11 12 12 12 12 12 12 12 12 13 13 14 14 15 16 16 16 16 15 14 13 14 14 15 15 14
11 11 11 12 12 11 12 13 14 15 15 15 14 13 13 13 12 12 12 12 13 13 13 13 13 12 13 14 14 14 14 15 16 16 16 16 15 15 15 15 15 15 15 15
14 13 13 12 11 12 13 14 15 15 16 15 16 14 14 13 14 13 13 13 14 14 13 14 14 14 14 15 15 14 14 15 15 16 16 16 17 16 16 16 15 15 15 15
14 14 14 14 14 14 14 15 16 17 17 16 16 14 14 14 14 14 15 15 15 15 14 14 14 14 15 15 15 15 15 15 15 16 17 17 17 17 16 16 16 16 16 16
14 15 15 15 15 15 15 16 16 17 18 18 17 16 16 16 15 16 16 16 16 16 15 14 14 14 15 15 15 15 16 16 16 17 17 18 18 17 16 16 16 16 16 17
17 16 16 16 16 17 18 17 17 17 17 17 17 17 17 16 16 16 16 16 16 16 15 15 15 15 16 15 15 15 16 17 17 18 18 19 19 18 17 17 17 17 17 17
18 18 18 17 17 17 18 18 18 18 18 18 17 17 18 17 17 16 16 16 16 16 16 17 16 16 16 16 16 16 17 17 18 18 19 20 20 19 18 18 18 18 18 18
19 18 19 18 17 18 18 18 19 19 18 18 17 17 18 17 18 19 18 18 18 17 17 18 17 16 16 17 17 17 17 18 18 19 20 20 19 19 19 19 18 18 17 17
18 18 18 18 17 19 17 18 19 19 19 19 19 19 18 18 18 19 19 19 20 19 19 19 18 17 17 18 18 18 18 18 19 19 19 19 19 19 19 18 18 17 17 18
19 18 18 18 19 18 16 17 17 17 18 19 18 18 18 17 17 18 19 20 21 20 19 18 18 19 18 18 18 19 19 19 19 19 19 20 19 19 18 18 18 18 18 18
20 19 19 19 19 19 17 15 16 17 18 17 17 17 17 17 18 19 19 19 19 19 18 18 18 19 19 19 18 18 19 19 18 18 19 19 19 19 19 18 18 18 18 18
21 20 20 20 20 20 19 17 17 17 17 17 17 17 18 18 18 19 19 19 19 19 18 18 18 18 18 18 18 19 19 19 19 19 19 19 19 19 19 19 19 19 19 19
21 20 19 20 20 20 18 18 18 18 17 18 18 17 17 18 19 19 19 19 19 19 18 18 18 18 18 18 19 19 19 20 20 19 19 19 18 19 19 20 19 19 19 19
21 21 20 20 20 20 19 18 18 18 18 18 17 16 17 18 19 19 19 18 18 18 17 17 18 19 19 19 19 19 19 19 19 19 19 18 19 19 19 19 19 19 19 19
23 22 22 22 22 22 22 21 19 19 19 18 18 18 17 18 19 20 19 19 19 19 18 18 19 19 20 20 20 20 19 19 19 19 19 19 20 20 19 19 19 19 19 19
24 23 24 24 24 24 23 22 21 20 19 19 20 19 19 19 19 20 21 21 21 21 20 20 20 19 19 20 20 20 19 19 19 19 19 19 20 20 20 20 20 20 20 19
25 25 25 25 25 25 25 24 23 22 21 21 21 21 21 21 21 21 21 21 22 21 21 21 21 20 20 20 20 20 19 19 19 20 20 21 21 22 21 21 21 20 20 19

GEFSCGP_500_meanwind_258.txt.gz
Wind_Speed
13 13 13 12 12 12 12 12 12 12 12 12 11 9 9 10 11 11 11 11 11 11 11 11 11 11 12 13 13 13 14 13 13 13 13 15 15 15 15 15 15 15 16 16
13 12 12 12 12 12 12 12 12 12 12 12 9 9 9 10 11 12 11 11 11 10 10 10 11 11 11 12 12 13 13 13 14 13 13 14 14 15 14 13 13 13 13 14
12 12 12 12 12 13 12 12 13 13 13 12 12 11 10 10 12 12 11 10 10 10 10 10 11 12 12 12 13 12 12 13 12 12 12 12 13 13 13 12 12 13 13 13
12 12 13 12 12 13 12 12 13 13 13 12 12 11 9 11 11 11 10 10 10 9 10 10 11 12 12 12 12 11 11 12 12 11 11 12 12 12 12 11 12 13 13 13
12 13 13 12 12 13 12 12 12 12 12 11 12 12 9 10 9 9 9 10 9 10 10 10 11 12 12 11 11 11 11 11 11 11 12 12 12 12 11 11 11 12 13 13
13 13 13 12 11 12 12 12 11 12 12 12 10 11 9 8 8 8 8 9 10 10 10 10 10 11 11 10 11 11 10 11 11 11 12 13 13 12 12 11 11 12 13 13
14 14 13 13 12 12 12 12 12 12 11 11 9 10 9 8 9 9 10 10 11 11 11 10 10 11 10 10 10 10 11 11 11 12 13 12 12 12 12 12 12 12 12 13
14 15 14 13 12 12 13 12 12 13 12 11 11 10 10 10 10 11 11 11 12 12 11 11 11 11 11 11 11 10 10 11 11 11 12 12 12 12 12 12 12 12 12 13
14 14 13 13 12 12 13 13 13 13 13 12 12 11 11 11 12 12 12 12 12 11 11 11 11 11 11 11 11 10 11 11 11 11 11 12 12 12 13 13 13 13 14 14
14 14 14 13 13 14 14 15 14 13 13 13 13 13 13 12 13 13 14 14 12 11 11 11 12 11 11 11 11 11 11 11 11 11 12 13 13 13 13 14 15 15 16 17
15 15 14 15 15 14 14 14 14 13 13 13 13 14 13 13 14 15 15 15 13 13 12 12 12 12 12 11 11 11 11 11 11 12 13 13 13 13 14 15 15 15 17 17
16 16 16 15 14 14 15 15 15 15 15 15 15 15 15 15 15 16 16 15 14 15 14 13 13 13 13 12 12 12 12 12 12 13 13 14 15 15 15 16 16 16 17 16
16 17 17 17 16 16 17 17 16 16 16 16 16 15 16 17 17 16 16 15 15 15 15 15 15 15 15 14 13 13 13 12 13 14 15 16 16 17 17 17 17 17 17 17
18 17 17 17 17 18 18 18 17 17 18 18 18 17 17 17 17 17 17 16 15 16 15 15 15 16 15 14 14 14 14 14 15 15 16 17 18 18 18 18 18 18 18 18
20 19 19 19 19 20 20 20 19 19 19 19 19 19 18 18 18 18 17 16 16 15 15 16 16 16 16 16 15 15 15 15 16 17 17 18 19 18 19 19 19 19 19 18
21 21 20 21 20 21 21 21 20 19 19 19 19 18 19 19 17 17 17 17 17 17 17 17 17 17 18 18 18 17 17 17 17 18 18 19 19 19 19 19 19 19 18 18
21 21 21 21 21 21 22 21 20 19 19 19 19 19 18 18 18 17 17 17 17 17 17 18 18 18 19 20 20 19 19 18 18 18 18 19 19 19 19 18 18 18 18 19
20 21 21 21 21 21 19 19 19 19 19 18 18 18 18 19 18 18 17 17 17 17 17 17 17 17 18 19 19 18 18 18 19 19 19 20 19 18 17 17 17 18 19 19
20 21 21 21 21 21 19 18 17 18 19 19 19 19 18 18 18 18 17 17 16 16 16 16 17 17 17 16 16 16 17 19 19 20 20 19 19 19 18 17 18 18 19 20
21 21 21 21 21 20 18 18 18 18 18 18 19 18 18 18 18 17 18 18 18 17 17 17 17 17 17 17 17 17 18 20 20 19 19 19 19 19 19 19 20 19 20 20
22 22 22 21 21 20 20 19 19 19 18 18 19 19 19 19 18 18 18 18 18 18 18 18 18 18 17 18 18 17 18 18 18 18 19 19 19 19 19 20 20 20 20 19
21 22 22 22 22 22 21 21 21 19 19 19 19 20 20 19 18 18 18 17 17 17 17 17 18 18 18 18 18 18 17 17 17 18 18 18 19 19 19 19 19 20 19 20
20 21 21 22 23 22 22 22 22 21 20 20 20 20 20 19 18 18 17 18 18 17 17 18 17 17 18 18 17 18 18 18 18 18 17 17 18 18 19 19 20 20 20 20
22 22 23 24 24 24 24 23 23 22 22 21 20 20 20 20 19 19 18 18 18 18 18 18 18 17 18 18 19 19 19 18 17 17 18 18 19 20 20 20 20 20 20 20
23 25 25 25 25 25 25 24 24 24 23 22 21 20 20 19 19 18 18 18 18 18 18 19 19 19 19 19 19 19 19 19 19 19 20 21 21 21 20 21 21 20 21 21
24 24 24 25 25 25 25 24 24 24 23 22 21 21 21 20 19 19 18 18 18 19 20 20 20 19 19 19 20 20 20 20 19 20 20 21 22 21 21 21 21 22 22 22